M I D A S
Marine Information and Data Acquisition System
Tripno 1186 of the Zeeleeuw from 2006-11-21 07:35:17 to 2006-11-21 15:36:30
Back to CruiseResearch ActivitiesStationsMapUnderway DataData graphs

EquipmentUnitsComment
TimeDGPSUTC
LatitudeDGPSDM.mWGS84
LongitudeDGPSDM.mWGS84
TemperatureSBE03/SBE38deg celciusITS90
ConductivitySBE21S/mITS90
SalinitySBE21 Practical Salinity Units
ChlorophylAChelsea fluorimeterg/lCalibrated in Aceton
Missing or incorrect values are displayed as -999
Sea surface data collected by the RV Zeeleeuw from 2006-11-21 07:21:41 to 2006-11-21 15:39:16
                                                                                    Next 1000 lines
Time Latitude Longitude Temperature Conductivity Salinity ChlorophylA
2006-11-21 07:21:51 51°13.598 2°56.095 -999 0.071367 0.360594 -2.871232
2006-11-21 07:21:56 51°13.598 2°56.095 -999 0.071367 0.360594 -2.871232
2006-11-21 07:22:01 51°13.598 2°56.095 -999 0.071367 0.360594 -2.871232
2006-11-21 07:22:06 51°13.598 2°56.095 -999 0.071367 0.360601 -2.871232
2006-11-21 07:22:11 51°13.598 2°56.095 -999 0.071367 0.360601 -2.871232
2006-11-21 07:22:16 51°13.598 2°56.095 -999 0.071367 0.360607 -2.871232
2006-11-21 07:22:21 51°13.598 2°56.095 -999 0.071264 0.360071 -2.871232
2006-11-21 07:22:26 51°13.598 2°56.095 -999 0.07147 0.361143 -2.871232
2006-11-21 07:22:31 51°13.598 2°56.095 -999 0.07147 0.361143 -2.871232
2006-11-21 07:22:36 51°13.598 2°56.095 -999 0.071367 0.360613 -2.871232
2006-11-21 07:22:41 51°13.598 2°56.095 -999 0.071367 0.360613 -2.871232
2006-11-21 07:22:45 51°13.598 2°56.095 -999 0.07147 0.361156 -2.871232
2006-11-21 07:22:51 51°13.598 2°56.095 -999 0.071264 0.360084 -2.871232
2006-11-21 07:22:56 51°13.598 2°56.095 -999 0.071367 0.36062 -2.871232
2006-11-21 07:23:01 51°13.598 2°56.095 -999 0.071367 0.36062 -2.871232
2006-11-21 07:23:05 51°13.598 2°56.095 -999 0.071264 0.360091 -2.871232
2006-11-21 07:23:11 51°13.599 2°56.094 -999 0.071367 0.360626 -2.871232
2006-11-21 07:23:16 51°13.599 2°56.094 -999 0.07147 0.361168 -2.871232
2006-11-21 07:23:21 51°13.598 2°56.094 -999 0.071367 0.360626 -2.871232
2006-11-21 07:23:25 51°13.598 2°56.095 -999 0.071367 0.360633 -2.871232
2006-11-21 07:23:31 51°13.599 2°56.095 -999 0.071367 0.360633 -2.871232
2006-11-21 07:23:36 51°13.599 2°56.095 -999 0.071367 0.360633 -2.871232
2006-11-21 07:23:41 51°13.599 2°56.095 -999 0.07147 0.361175 -2.871232
2006-11-21 07:23:45 51°13.599 2°56.095 -999 0.071367 0.360639 -2.871232
2006-11-21 07:23:51 51°13.598 2°56.094 -999 0.071367 0.360646 -2.871232
2006-11-21 07:23:56 51°13.598 2°56.094 -999 0.071367 0.360646 -2.871232
2006-11-21 07:24:01 51°13.598 2°56.094 -999 0.071367 0.360646 -2.871232
2006-11-21 07:24:06 51°13.598 2°56.094 -999 0.071264 0.360116 -2.871232
2006-11-21 07:24:11 51°13.598 2°56.094 -999 0.071367 0.360652 -2.871232
2006-11-21 07:24:16 51°13.598 2°56.094 -999 0.071367 0.360652 -2.871232
2006-11-21 07:24:21 51°13.598 2°56.094 -999 0.07147 0.361194 -2.871232
2006-11-21 07:24:26 51°13.598 2°56.094 -999 0.071367 0.360658 -2.871232
2006-11-21 07:24:31 51°13.598 2°56.094 -999 0.071367 0.360658 -2.871232
2006-11-21 07:24:36 51°13.598 2°56.094 -999 0.07147 0.361194 -2.871232
2006-11-21 07:24:41 51°13.598 2°56.093 -999 0.071367 0.360665 -2.871232
2006-11-21 07:24:46 51°13.598 2°56.094 -999 0.071367 0.360665 -2.871232
2006-11-21 07:24:51 51°13.598 2°56.094 -999 0.071367 0.360671 -2.871232
2006-11-21 07:24:56 51°13.598 2°56.094 -999 0.071367 0.360671 -2.871232
2006-11-21 07:25:01 51°13.598 2°56.094 -999 0.071367 0.360671 -2.871232
2006-11-21 07:25:05 51°13.598 2°56.094 -999 0.071367 0.360678 -2.871232
2006-11-21 07:25:11 51°13.598 2°56.094 -999 0.071367 0.360678 -2.871232
2006-11-21 07:25:16 51°13.598 2°56.094 -999 0.071367 0.360684 -2.871232
2006-11-21 07:25:21 51°13.598 2°56.094 -999 0.07147 0.36122 -2.871232
2006-11-21 07:25:25 51°13.598 2°56.094 -999 0.071264 0.360148 -2.871232
2006-11-21 07:25:31 51°13.598 2°56.094 -999 0.071264 0.360148 -2.871232
2006-11-21 07:25:36 51°13.598 2°56.094 -999 0.071264 0.360155 -2.871232
2006-11-21 07:25:41 51°13.598 2°56.094 -999 0.071367 0.36069 -2.871232
2006-11-21 07:25:45 51°13.598 2°56.094 -999 0.07147 0.361226 -2.871232
2006-11-21 07:25:51 51°13.598 2°56.094 -999 0.071367 0.360697 -2.871232
2006-11-21 07:25:56 51°13.598 2°56.094 -999 0.07147 0.361233 -2.871232
2006-11-21 07:26:01 51°13.598 2°56.094 -999 0.07147 0.361233 -2.871232
2006-11-21 07:26:06 51°13.598 2°56.094 -999 0.071367 0.360703 -2.871232
2006-11-21 07:26:11 51°13.598 2°56.095 -999 0.071367 0.36071 -2.871232
2006-11-21 07:26:16 51°13.598 2°56.095 -999 0.071367 0.36071 -2.871232
2006-11-21 07:26:21 51°13.598 2°56.095 -999 0.071367 0.36071 -2.871232
2006-11-21 07:26:26 51°13.598 2°56.095 -999 0.07147 0.361246 -2.871232
2006-11-21 07:26:31 51°13.599 2°56.095 -999 0.07147 0.361246 -2.871232
2006-11-21 07:26:36 51°13.599 2°56.095 -999 0.071367 0.360716 -2.871232
2006-11-21 07:26:41 51°13.599 2°56.095 -999 0.07147 0.361252 -2.871232
2006-11-21 07:26:46 51°13.599 2°56.095 -999 0.071367 0.360716 -2.871232
2006-11-21 07:26:51 51°13.599 2°56.095 -999 0.071367 0.360723 -2.871232
2006-11-21 07:26:56 51°13.599 2°56.095 -999 0.07147 0.361259 -2.871232
2006-11-21 07:27:01 51°13.599 2°56.095 -999 0.07147 0.361259 -2.871232
2006-11-21 07:27:06 51°13.599 2°56.095 -999 0.071264 0.360193 -2.871232
2006-11-21 07:27:11 51°13.599 2°56.095 -999 0.071367 0.360729 -2.871232
2006-11-21 07:27:16 51°13.599 2°56.095 -999 0.071367 0.360729 -2.871232
2006-11-21 07:27:21 51°13.599 2°56.095 -999 0.071264 0.3602 -2.871232
2006-11-21 07:27:25 51°13.599 2°56.096 -999 0.071264 0.3602 -2.871232
2006-11-21 07:27:31 51°13.599 2°56.096 -999 0.07147 0.361278 -2.871232
2006-11-21 07:27:36 51°13.599 2°56.096 -999 0.071367 0.360742 -2.871232
2006-11-21 07:27:40 51°13.599 2°56.096 -999 0.07147 0.361278 -2.871232
2006-11-21 07:27:43 51°13.599 2°56.096 -999 0.071367 0.360742 -2.871232
2006-11-21 07:27:47 51°13.599 2°56.096 -999 0.071367 0.360748 -2.871232
2006-11-21 07:27:52 51°13.599 2°56.096 -999 0.071367 0.360748 -2.871232
2006-11-21 07:27:57 51°13.599 2°56.096 -999 0.071367 0.360748 -2.871232
2006-11-21 07:28:01 51°13.599 2°56.096 -999 0.071367 0.360748 -2.871232
2006-11-21 07:28:06 51°13.599 2°56.097 -999 0.071367 0.360755 -2.871232
2006-11-21 07:28:12 51°13.599 2°56.097 -999 0.07147 0.361291 -2.871232
2006-11-21 07:28:17 51°13.599 2°56.097 -999 0.071367 0.360761 -2.871232
2006-11-21 07:28:21 51°13.599 2°56.097 -999 0.071367 0.360768 -2.871232
2006-11-21 07:28:27 51°13.599 2°56.098 -999 0.071367 0.360768 -2.871232
2006-11-21 07:28:32 51°13.599 2°56.097 -999 0.071264 0.360232 -2.871232
2006-11-21 07:28:37 51°13.599 2°56.097 -999 0.071367 0.360774 -2.871232
2006-11-21 07:28:41 51°13.599 2°56.097 -999 0.071367 0.360774 -2.871232
2006-11-21 07:28:47 51°13.599 2°56.097 -999 0.071367 0.360774 -2.871232
2006-11-21 07:28:52 51°13.599 2°56.097 -999 0.071367 0.360774 -2.871232
2006-11-21 07:28:56 51°13.599 2°56.097 -999 0.071367 0.360774 -2.871232
2006-11-21 07:29:01 51°13.599 2°56.096 -999 0.071264 0.360245 -2.871232
2006-11-21 07:29:07 51°13.598 2°56.095 -999 0.071367 0.360781 -2.871232
2006-11-21 07:29:13 51°13.598 2°56.096 -999 0.071367 0.360787 -2.871232
2006-11-21 07:29:17 51°13.598 2°56.096 -999 0.071264 0.360251 -2.871232
2006-11-21 07:29:22 51°13.598 2°56.096 -999 0.071264 0.360257 -2.871232
2006-11-21 07:29:27 51°13.598 2°56.096 -999 0.071264 0.360257 -2.871232
2006-11-21 07:29:32 51°13.599 2°56.096 -999 0.071367 0.360793 -2.871232
2006-11-21 07:29:37 51°13.599 2°56.097 -999 0.071264 0.360264 -2.871232
2006-11-21 07:29:42 51°13.599 2°56.097 -999 0.071367 0.3608 -2.871232
2006-11-21 07:29:47 51°13.599 2°56.097 -999 0.071367 0.3608 -2.871232
2006-11-21 07:29:52 51°13.598 2°56.096 -999 0.071264 0.36027 -2.871232
2006-11-21 07:29:57 51°13.599 2°56.096 -999 0.071264 0.36027 -2.871232
2006-11-21 07:30:01 51°13.599 2°56.096 -999 0.071264 0.360277 -2.871232
2006-11-21 07:30:07 51°13.599 2°56.096 -999 0.071264 0.360277 -2.871232
2006-11-21 07:30:12 51°13.598 2°56.095 -999 0.071367 0.360819 -2.871232
2006-11-21 07:30:17 51°13.598 2°56.095 -999 0.071367 0.360819 -2.871232
2006-11-21 07:30:21 51°13.598 2°56.096 -999 0.071264 0.36029 -2.871232
2006-11-21 07:30:27 51°13.599 2°56.096 -999 0.071264 0.36029 -2.871232
2006-11-21 07:30:32 51°13.598 2°56.095 -999 0.071264 0.36029 -2.871232
2006-11-21 07:30:37 51°13.598 2°56.095 -999 0.071264 0.360296 -2.871232
2006-11-21 07:30:41 51°13.598 2°56.095 -999 0.071367 0.360826 -2.871232
2006-11-21 07:30:47 51°13.598 2°56.095 -999 0.071367 0.360832 -2.871232
2006-11-21 07:30:52 51°13.598 2°56.096 -999 0.071264 0.360302 -2.871232
2006-11-21 07:30:57 51°13.598 2°56.096 -999 0.071264 0.360302 -2.871232
2006-11-21 07:31:02 51°13.599 2°56.096 -999 0.071161 0.359773 -2.871232
2006-11-21 07:31:07 51°13.599 2°56.097 -999 0.071367 0.360845 -2.871232
2006-11-21 07:31:11 51°13.599 2°56.097 -999 0.071264 0.360315 -2.871232
2006-11-21 07:31:16 51°13.599 2°56.097 -999 0.071264 0.360315 -2.871232
2006-11-21 07:31:22 51°13.599 2°56.096 -999 0.07147 0.361394 -2.871232
2006-11-21 07:31:27 51°13.599 2°56.096 -999 0.07147 0.361394 -2.871232
2006-11-21 07:31:31 51°13.599 2°56.096 -999 0.071264 0.360322 -2.871232
2006-11-21 07:31:36 51°13.599 2°56.096 -999 0.071367 0.360864 -2.871232
2006-11-21 07:31:42 51°13.599 2°56.096 -999 0.071367 0.360864 -2.871232
2006-11-21 07:31:47 51°13.599 2°56.096 -999 0.071264 0.360328 -2.871232
2006-11-21 07:31:52 51°13.599 2°56.096 -999 0.071367 0.360871 -2.871232
2006-11-21 07:31:56 51°13.598 2°56.096 -999 0.071367 0.360871 -2.871232
2006-11-21 07:32:02 51°13.598 2°56.096 -999 0.071367 0.360877 -2.871232
2006-11-21 07:32:07 51°13.598 2°56.096 -999 0.071264 0.360341 -2.871232
2006-11-21 07:32:12 51°13.598 2°56.096 -999 0.071367 0.360883 -2.871232
2006-11-21 07:32:16 51°13.598 2°56.096 -999 0.071264 0.360354 -2.871232
2006-11-21 07:32:21 51°13.598 2°56.096 -999 0.071264 0.36036 -2.871232
2006-11-21 07:32:26 51°13.598 2°56.095 -999 0.071264 0.36036 -2.871232
2006-11-21 07:32:31 51°13.598 2°56.096 -999 0.071161 0.359824 -2.871232
2006-11-21 07:32:37 51°13.599 2°56.096 -999 0.071264 0.36036 -2.871232
2006-11-21 07:32:41 51°13.599 2°56.096 -999 0.071367 0.360903 -2.871232
2006-11-21 07:32:47 51°13.598 2°56.096 -999 0.071161 0.359831 -2.871232
2006-11-21 07:32:52 51°13.598 2°56.096 -999 0.071264 0.360373 -2.871232
2006-11-21 07:32:57 51°13.598 2°56.096 -999 0.071264 0.360373 -2.871232
2006-11-21 07:33:02 51°13.598 2°56.096 -999 0.071264 0.360373 -2.871232
2006-11-21 07:33:05 51°13.598 2°56.096 -999 0.071367 0.360916 -2.871232
2006-11-21 07:33:12 51°13.598 2°56.096 -999 0.071367 0.360922 -2.871232
2006-11-21 07:33:17 51°13.598 2°56.096 -999 0.071367 0.360929 -2.871232
2006-11-21 07:33:21 51°13.598 2°56.096 -999 0.071264 0.360392 -2.871232
2006-11-21 07:33:27 51°13.598 2°56.096 -999 0.071264 0.360392 -2.871232
2006-11-21 07:33:32 51°13.599 2°56.096 -999 0.071161 0.359856 -2.871232
2006-11-21 07:33:36 51°13.599 2°56.096 -999 0.071161 0.359863 -2.871232
2006-11-21 07:33:42 51°13.599 2°56.096 -999 0.071264 0.360399 -2.871232
2006-11-21 07:33:47 51°13.599 2°56.096 -999 0.071264 0.360405 -2.871232
2006-11-21 07:33:52 51°13.599 2°56.096 -999 0.071264 0.360412 -2.871232
2006-11-21 07:33:56 51°13.599 2°56.096 -999 0.071264 0.360412 -2.871232
2006-11-21 07:34:02 51°13.599 2°56.096 -999 0.071264 0.360412 -2.871232
2006-11-21 07:34:07 51°13.598 2°56.095 -999 0.071367 0.360954 -2.871232
2006-11-21 07:34:12 51°13.598 2°56.095 -999 0.071161 0.359882 -2.871232
2006-11-21 07:34:17 51°13.597 2°56.095 -999 0.071367 0.360961 -2.871232
2006-11-21 07:34:21 51°13.597 2°56.095 -999 0.071264 0.360424 -2.871232
2006-11-21 07:34:26 51°13.596 2°56.095 -999 0.071264 0.360424 -2.871232
2006-11-21 07:34:32 51°13.596 2°56.095 -999 0.071367 0.360967 -2.871232
2006-11-21 07:34:37 51°13.597 2°56.095 -999 0.071367 0.360967 -2.871232
2006-11-21 07:34:41 51°13.597 2°56.095 -999 0.071161 0.359908 -2.871232
2006-11-21 07:34:45 51°13.597 2°56.094 -999 0.071264 0.360444 -2.871232
2006-11-21 07:34:52 51°13.598 2°56.093 -999 0.071264 0.360444 -2.871232
2006-11-21 07:34:56 51°13.599 2°56.091 -999 0.071264 0.360444 -2.871232
2006-11-21 07:35:01 51°13.599 2°56.089 -999 0.071264 0.36045 -2.871232
2006-11-21 07:35:07 51°13.6 2°56.086 -999 0.071367 0.360993 -2.871232
2006-11-21 07:35:12 51°13.601 2°56.082 -999 0.071367 0.360999 -2.871232
2006-11-21 07:35:17 51°13.603 2°56.078 -999 0.071264 0.360463 -2.871232
2006-11-21 07:35:23 51°13.604 2°56.072 -999 0.071264 0.360469 -2.871232
2006-11-21 07:35:27 51°13.606 2°56.067 -999 0.071264 0.360469 -2.871232
2006-11-21 07:35:32 51°13.608 2°56.062 -999 0.071058 0.359397 -2.871232
2006-11-21 07:35:37 51°13.609 2°56.056 -999 0.071264 0.360476 -2.871232
2006-11-21 07:35:42 51°13.611 2°56.05 -999 0.071264 0.360482 -2.871232
2006-11-21 07:35:47 51°13.612 2°56.043 -999 0.071264 0.360482 -2.871232
2006-11-21 07:35:52 51°13.614 2°56.036 -999 0.071264 0.360489 -2.871232
2006-11-21 07:35:57 51°13.616 2°56.029 -999 0.071264 0.360489 -2.871232
2006-11-21 07:36:03 51°13.618 2°56.021 -999 0.071367 0.361032 -2.871232
2006-11-21 07:36:07 51°13.619 2°56.015 -999 0.071264 0.360502 -2.871232
2006-11-21 07:36:12 51°13.621 2°56.007 -999 0.071161 0.359965 -2.871232
2006-11-21 07:36:17 51°13.623 2°56 -999 0.071264 0.360508 -2.871232
2006-11-21 07:36:22 51°13.626 2°55.992 -999 0.071264 0.360508 -2.871232
2006-11-21 07:36:27 51°13.628 2°55.984 -999 0.071264 0.360508 -2.871232
2006-11-21 07:36:32 51°13.63 2°55.976 -999 0.071264 0.360515 -2.871232
2006-11-21 07:36:37 51°13.632 2°55.968 -999 0.071264 0.360521 -2.871232
2006-11-21 07:36:43 51°13.635 2°55.958 -999 0.071264 0.360515 -2.871232
2006-11-21 07:36:47 51°13.636 2°55.952 -999 0.071161 0.359985 -2.871232
2006-11-21 07:36:53 51°13.639 2°55.942 -999 0.071367 0.361064 -2.871232
2006-11-21 07:36:57 51°13.641 2°55.935 -999 0.071367 0.361064 -2.871232
2006-11-21 07:37:02 51°13.643 2°55.927 -999 0.071264 0.360534 -2.871232
2006-11-21 07:37:07 51°13.646 2°55.919 -999 0.071367 0.36107 -2.871232
2006-11-21 07:37:13 51°13.649 2°55.909 -999 0.071264 0.36054 -2.871232
2006-11-21 07:37:17 51°13.651 2°55.902 -999 0.071161 0.36001 -2.871232
2006-11-21 07:37:22 51°13.654 2°55.893 -999 0.071264 0.360547 -2.871232
2006-11-21 07:37:27 51°13.657 2°55.885 -999 0.071264 0.360547 -2.871232
2006-11-21 07:37:32 51°13.66 2°55.876 -999 0.071264 0.360553 -2.871232
2006-11-21 07:37:37 51°13.664 2°55.867 -999 0.071161 0.360017 -2.871232
2006-11-21 07:37:43 51°13.668 2°55.857 -999 0.071264 0.36056 -2.871232
2006-11-21 07:37:47 51°13.67 2°55.85 -999 0.071161 0.360023 -2.871232
2006-11-21 07:37:52 51°13.673 2°55.841 -999 0.071161 0.360023 -2.871232
2006-11-21 07:37:57 51°13.676 2°55.833 -999 0.071161 0.360023 -2.871232
2006-11-21 07:38:02 51°13.678 2°55.825 -999 0.071264 0.360566 -2.871232
2006-11-21 07:38:07 51°13.68 2°55.817 -999 0.071161 0.36003 -2.871232
2006-11-21 07:38:11 51°13.682 2°55.811 -999 0.071264 0.360572 -2.871232
2006-11-21 07:38:17 51°13.685 2°55.802 -999 0.071264 0.360572 -2.871232
2006-11-21 07:38:22 51°13.687 2°55.795 -999 0.071264 0.360572 -2.871232
2006-11-21 07:38:27 51°13.688 2°55.788 -999 0.071264 0.360572 -2.871232
2006-11-21 07:38:31 51°13.69 2°55.782 -999 0.071161 0.360049 -2.871232
2006-11-21 07:38:37 51°13.691 2°55.774 -999 0.071264 0.360585 -2.871232
2006-11-21 07:38:41 51°13.692 2°55.768 -999 0.071264 0.360585 -2.871232
2006-11-21 07:38:47 51°13.694 2°55.761 -999 0.071264 0.360585 -2.871232
2006-11-21 07:38:52 51°13.695 2°55.755 -999 0.071264 0.360585 -2.871232
2006-11-21 07:38:57 51°13.695 2°55.751 -999 0.071264 0.360585 -2.871232
2006-11-21 07:39:01 51°13.696 2°55.747 -999 0.071161 0.360055 -2.871232
2006-11-21 07:39:07 51°13.697 2°55.742 -999 0.071264 0.360592 -2.871232
2006-11-21 07:39:12 51°13.697 2°55.739 -999 0.071264 0.360592 -2.871232
2006-11-21 07:39:16 51°13.697 2°55.736 -999 0.071161 0.360062 -2.871232
2006-11-21 07:39:21 51°13.698 2°55.733 -999 0.071264 0.360598 -2.871232
2006-11-21 07:39:26 51°13.698 2°55.731 -999 0.071264 0.360598 -2.871232
2006-11-21 07:39:32 51°13.698 2°55.729 -999 0.071264 0.360598 -2.871232
2006-11-21 07:39:37 51°13.698 2°55.729 -999 0.071264 0.360605 -2.871232
2006-11-21 07:39:41 51°13.699 2°55.728 -999 0.071161 0.360075 -2.871232
2006-11-21 07:39:47 51°13.699 2°55.728 -999 0.071264 0.360611 -2.871232
2006-11-21 07:39:51 51°13.7 2°55.728 -999 0.071161 0.360081 -2.871232
2006-11-21 07:39:56 51°13.7 2°55.729 -999 0.071161 0.360081 -2.871232
2006-11-21 07:40:01 51°13.701 2°55.729 -999 0.071264 0.360617 -2.871232
2006-11-21 07:40:07 51°13.702 2°55.73 -999 0.071264 0.360617 -2.871232
2006-11-21 07:40:11 51°13.703 2°55.731 -999 0.071264 0.360617 -2.871232
2006-11-21 07:40:16 51°13.704 2°55.731 -999 0.071264 0.360624 -2.871232
2006-11-21 07:40:22 51°13.706 2°55.732 -999 0.071264 0.360624 -2.871232
2006-11-21 07:40:27 51°13.708 2°55.733 -999 0.071264 0.360624 -2.871232
2006-11-21 07:40:32 51°13.71 2°55.733 -999 0.071161 0.360094 -2.871232
2006-11-21 07:40:37 51°13.712 2°55.734 -999 0.071264 0.36063 -2.871232
2006-11-21 07:40:41 51°13.714 2°55.734 -999 0.071161 0.360094 -2.871232
2006-11-21 07:40:47 51°13.717 2°55.733 -999 0.071264 0.36063 -2.871232
2006-11-21 07:40:52 51°13.719 2°55.733 -999 0.071161 0.360094 -2.871232
2006-11-21 07:40:56 51°13.721 2°55.732 -999 0.071161 0.360094 -2.871232
2006-11-21 07:41:01 51°13.724 2°55.732 -999 0.071264 0.36063 -2.871232
2006-11-21 07:41:07 51°13.728 2°55.73 -999 0.071161 0.360094 -2.871232
2006-11-21 07:41:12 51°13.731 2°55.729 -999 0.071161 0.360094 -2.871232
2006-11-21 07:41:16 51°13.733 2°55.728 -999 0.071264 0.36063 -2.871232
2006-11-21 07:41:22 51°13.737 2°55.725 -999 0.071161 0.3601 -2.871232
2006-11-21 07:41:27 51°13.74 2°55.722 -999 0.071161 0.3601 -2.871232
2006-11-21 07:41:32 51°13.744 2°55.719 -999 0.071161 0.3601 -2.871232
2006-11-21 07:41:37 51°13.748 2°55.715 -999 0.071161 0.3601 -2.871232
2006-11-21 07:41:41 51°13.75 2°55.711 -999 0.071264 0.360637 -2.871232
2006-11-21 07:41:47 51°13.755 2°55.706 -999 0.071161 0.3601 -2.871232
2006-11-21 07:41:52 51°13.76 2°55.701 -999 0.071264 0.36063 -2.871232
2006-11-21 07:41:56 51°13.763 2°55.697 -999 0.071264 0.36063 -2.871232
2006-11-21 07:42:02 51°13.769 2°55.691 -999 0.071264 0.36063 -2.871232
2006-11-21 07:42:07 51°13.774 2°55.686 -999 0.071264 0.36063 -2.871232
2006-11-21 07:42:10 51°13.777 2°55.683 -999 0.071367 0.361167 -2.871232
2006-11-21 07:42:17 51°13.785 2°55.675 -999 0.071161 0.360094 -2.871232
2006-11-21 07:42:21 51°13.789 2°55.67 -999 0.071264 0.360637 -2.871232
2006-11-21 07:42:26 51°13.796 2°55.664 -999 0.071264 0.360637 -2.871232
2006-11-21 07:42:32 51°13.803 2°55.658 -999 0.071161 0.360107 -2.871232
2006-11-21 07:42:37 51°13.81 2°55.652 -999 0.071161 0.360113 -2.871232
2006-11-21 07:42:41 51°13.815 2°55.648 -999 0.071264 0.360656 -2.871232
2006-11-21 07:42:47 51°13.824 2°55.641 -999 0.071264 0.360656 -2.871232
2006-11-21 07:42:52 51°13.831 2°55.635 -999 0.071161 0.36012 -2.871232
2006-11-21 07:42:56 51°13.837 2°55.631 -999 0.071161 0.36012 -2.871232
2006-11-21 07:43:02 51°13.846 2°55.624 -999 0.071264 0.360656 -2.871232
2006-11-21 07:43:07 51°13.853 2°55.618 -999 0.071161 0.360126 -2.871232
2006-11-21 07:43:12 51°13.861 2°55.611 -999 0.071264 0.360669 -2.871232
2006-11-21 07:43:16 51°13.867 2°55.606 -999 0.071264 0.360669 -2.871232
2006-11-21 07:43:21 51°13.875 2°55.6 -999 0.071161 0.360132 -2.871232
2006-11-21 07:43:26 51°13.883 2°55.594 -999 0.071161 0.360132 -2.871232
2006-11-21 07:43:32 51°13.892 2°55.586 -999 0.071161 0.360139 -2.871232
2006-11-21 07:43:37 51°13.901 2°55.58 -999 0.071161 0.360139 -2.871232
2006-11-21 07:43:41 51°13.907 2°55.575 -999 0.071058 0.359596 -2.871232
2006-11-21 07:43:45 51°13.914 2°55.57 -999 0.071161 0.360132 -2.871232
2006-11-21 07:43:52 51°13.925 2°55.562 -999 0.071161 0.360132 -2.871232
2006-11-21 07:43:57 51°13.934 2°55.556 -999 0.071161 0.360132 -2.871232
2006-11-21 07:44:01 51°13.941 2°55.552 -999 0.071161 0.360139 -2.871232
2006-11-21 07:44:07 51°13.951 2°55.545 -999 0.071264 0.360675 -2.871232
2006-11-21 07:44:12 51°13.96 2°55.539 -999 0.071058 0.359609 -2.871232
2006-11-21 07:44:17 51°13.969 2°55.533 -999 0.071161 0.360145 -2.871232
2006-11-21 07:44:21 51°13.976 2°55.529 -999 0.071161 0.360145 -2.871232
2006-11-21 07:44:26 51°13.985 2°55.523 -999 0.071161 0.360145 -2.871232
2006-11-21 07:44:32 51°13.996 2°55.515 -999 0.071161 0.360145 -2.871232
2006-11-21 07:44:37 51°14.005 2°55.509 -999 0.071161 0.360145 -2.871232
2006-11-21 07:44:42 51°14.015 2°55.503 -999 0.071161 0.360152 -2.871232
2006-11-21 07:44:47 51°14.024 2°55.497 -999 0.071161 0.360152 -2.871232
2006-11-21 07:44:52 51°14.034 2°55.491 -999 0.071161 0.360145 -2.871232
2006-11-21 07:44:56 51°14.042 2°55.485 -999 0.071161 0.360145 -2.871232
2006-11-21 07:45:01 51°14.052 2°55.479 -999 0.071161 0.360152 -2.871232
2006-11-21 07:45:07 51°14.064 2°55.47 -999 0.071264 0.360688 -2.871232
2006-11-21 07:45:11 51°14.072 2°55.465 -999 0.071161 0.360152 -2.871232
2006-11-21 07:45:16 51°14.082 2°55.458 -999 0.071161 0.360152 -2.871232
2006-11-21 07:45:22 51°14.094 2°55.449 -999 0.071264 0.360688 -2.871232
2006-11-21 07:45:27 51°14.105 2°55.441 -999 0.071264 0.360688 -2.871232
2006-11-21 07:45:32 51°14.116 2°55.433 -999 0.071264 0.360688 -2.871232
2006-11-21 07:45:36 51°14.124 2°55.427 -999 0.071058 0.359622 -2.871232
2006-11-21 07:45:42 51°14.138 2°55.416 -999 0.071058 0.359622 -2.871232
2006-11-21 07:45:47 51°14.149 2°55.407 -999 0.071161 0.360165 -2.871232
2006-11-21 07:45:52 51°14.16 2°55.397 -999 0.071161 0.360158 -2.871232
2006-11-21 07:45:57 51°14.171 2°55.387 -999 0.071161 0.360158 -2.871232
2006-11-21 07:46:02 51°14.182 2°55.376 -999 0.071264 0.360701 -2.871232
2006-11-21 07:46:07 51°14.193 2°55.365 -999 0.071161 0.360171 -2.871232
2006-11-21 07:46:12 51°14.204 2°55.353 -999 0.071161 0.360171 -2.871232
2006-11-21 07:46:17 51°14.214 2°55.341 -999 0.071161 0.360177 -2.871232
2006-11-21 07:46:21 51°14.222 2°55.33 -999 0.071161 0.360177 -2.871232
2006-11-21 07:46:27 51°14.234 2°55.313 -999 0.071161 0.360177 -2.871232
2006-11-21 07:46:32 51°14.244 2°55.299 -999 0.071264 0.360714 -2.871232
2006-11-21 07:46:37 51°14.253 2°55.284 -999 0.071264 0.36072 -2.871232
2006-11-21 07:46:41 51°14.261 2°55.272 -999 0.071161 0.360177 -2.871232
2006-11-21 07:46:47 51°14.272 2°55.253 -999 0.071161 0.360177 -2.871232
2006-11-21 07:46:51 51°14.279 2°55.24 -999 0.071161 0.360184 -2.871232
2006-11-21 07:46:57 51°14.289 2°55.22 -999 0.071161 0.360184 -2.871232
2006-11-21 07:47:01 51°14.296 2°55.207 -999 0.071264 0.36072 -2.871232
2006-11-21 07:47:07 51°14.306 2°55.187 -999 0.071161 0.360184 -2.871232
2006-11-21 07:47:12 51°14.314 2°55.17 -999 0.071264 0.360727 -2.871232
2006-11-21 07:47:16 51°14.321 2°55.156 -999 0.071161 0.360184 -2.871232
2006-11-21 07:47:22 51°14.331 2°55.136 -999 0.071161 0.36019 -2.871232
2006-11-21 07:47:27 51°14.339 2°55.119 -999 0.071161 0.36019 -2.871232
2006-11-21 07:47:32 51°14.348 2°55.102 -999 0.071161 0.360197 -2.871232
2006-11-21 07:47:36 51°14.355 2°55.088 -999 0.071264 0.360727 -2.871232
2006-11-21 07:47:42 51°14.366 2°55.069 -999 0.071161 0.360197 -2.871232
2006-11-21 07:47:47 51°14.376 2°55.053 -999 0.071161 0.360197 -2.871232
2006-11-21 07:47:52 51°14.387 2°55.038 -999 0.071161 0.36021 -2.871232
2006-11-21 07:47:56 51°14.396 2°55.026 -999 0.071161 0.36021 -2.871232
2006-11-21 07:48:01 51°14.407 2°55.011 -999 0.071264 0.360746 -2.871232
2006-11-21 07:48:07 51°14.42 2°54.993 -999 0.071161 0.360222 -2.871232
2006-11-21 07:48:11 51°14.429 2°54.981 -999 0.071161 0.360229 -2.871232
2006-11-21 07:48:16 51°14.441 2°54.967 -999 0.071161 0.360222 -2.871232
2006-11-21 07:48:21 51°14.452 2°54.953 -999 0.071264 0.360753 -2.871232
2006-11-21 07:48:27 51°14.467 2°54.938 -999 0.071264 0.360753 -2.871232
2006-11-21 07:48:32 51°14.479 2°54.926 -999 0.071264 0.360759 -2.871232
2006-11-21 07:48:37 51°14.492 2°54.914 -999 0.071161 0.360235 -2.871232
2006-11-21 07:48:41 51°14.502 2°54.904 -999 0.071161 0.360248 -2.871232
2006-11-21 07:48:45 51°14.512 2°54.894 -999 0.071161 0.360255 -2.871232
2006-11-21 07:48:52 51°14.53 2°54.877 -999 0.071161 0.360255 -2.871232
2006-11-21 07:48:57 51°14.543 2°54.863 -999 0.071161 0.360255 -2.871232
2006-11-21 07:49:02 51°14.555 2°54.85 -999 0.071058 0.359724 -2.871232
2006-11-21 07:49:07 51°14.569 2°54.836 -999 0.071161 0.360255 -2.871232
2006-11-21 07:49:12 51°14.582 2°54.823 -999 0.071161 0.360255 -2.871232
2006-11-21 07:49:17 51°14.596 2°54.81 -999 0.071058 0.359724 -2.871232
2006-11-21 07:49:21 51°14.608 2°54.799 -999 0.071161 0.360261 -2.871232
2006-11-21 07:49:27 51°14.625 2°54.784 -999 0.071161 0.360261 -2.871232
2006-11-21 07:49:31 51°14.637 2°54.773 -999 0.071161 0.360267 -2.871232
2006-11-21 07:49:37 51°14.655 2°54.759 -999 0.071264 0.360811 -2.871232
2006-11-21 07:49:42 51°14.67 2°54.746 -999 0.071161 0.360274 -2.871232
2006-11-21 07:49:45 51°14.68 2°54.739 -999 0.071161 0.360293 -2.871232
2006-11-21 07:49:52 51°14.701 2°54.723 -999 0.071161 0.360287 -2.871232
2006-11-21 07:49:56 51°14.714 2°54.714 -999 0.071161 0.360287 -2.871232
2006-11-21 07:50:01 51°14.729 2°54.702 -999 0.071161 0.360293 -2.871232
2006-11-21 07:50:07 51°14.748 2°54.689 -999 0.071161 0.3603 -2.871232
2006-11-21 07:50:12 51°14.764 2°54.677 -999 0.071161 0.3603 -2.871232
2006-11-21 07:50:17 51°14.78 2°54.666 -999 0.071058 0.359782 -2.871232
2006-11-21 07:50:22 51°14.796 2°54.653 -999 0.071161 0.360313 -2.871232
2006-11-21 07:50:27 51°14.812 2°54.64 -999 0.071161 0.360313 -2.871232
2006-11-21 07:50:32 51°14.827 2°54.626 -999 0.071264 0.360856 -2.871232
2006-11-21 07:50:37 51°14.842 2°54.612 -999 0.071161 0.360325 -2.871232
2006-11-21 07:50:41 51°14.854 2°54.6 -999 0.071161 0.360325 -2.871232
2006-11-21 07:50:47 51°14.873 2°54.583 -999 0.071264 0.360875 -2.871232
2006-11-21 07:50:52 51°14.888 2°54.568 -999 0.071161 0.360332 -2.871232
2006-11-21 07:50:57 51°14.903 2°54.553 -999 0.071161 0.360332 -2.871232
2006-11-21 07:51:02 51°14.918 2°54.539 -999 0.071161 0.360338 -2.871232
2006-11-21 07:51:07 51°14.933 2°54.524 -999 0.071058 0.359808 -2.871232
2006-11-21 07:51:12 51°14.949 2°54.511 -999 0.071161 0.360338 -2.871232
2006-11-21 07:51:16 51°14.961 2°54.5 -999 0.071161 0.360345 -2.871232
2006-11-21 07:51:22 51°14.98 2°54.486 -999 0.071264 0.360894 -2.871232
2006-11-21 07:51:27 51°14.996 2°54.475 -999 0.071264 0.360894 -2.871232
2006-11-21 07:51:32 51°15.012 2°54.464 -999 0.071058 0.359821 -2.871232
2006-11-21 07:51:37 51°15.028 2°54.452 -999 0.071161 0.360383 -2.871232
2006-11-21 07:51:41 51°15.04 2°54.443 -999 0.071161 0.360396 -2.871232
2006-11-21 07:51:47 51°15.058 2°54.426 -999 0.071058 0.359859 -2.871232
2006-11-21 07:51:52 51°15.073 2°54.412 -999 0.071161 0.360396 -2.871232
2006-11-21 07:51:56 51°15.084 2°54.399 -999 0.071161 0.360396 -2.871232
2006-11-21 07:52:02 51°15.1 2°54.378 -999 0.071161 0.360403 -2.871232
2006-11-21 07:52:07 51°15.114 2°54.361 -999 0.071161 0.360409 -2.871232
2006-11-21 07:52:12 51°15.127 2°54.342 -999 0.071161 0.360396 -2.871232
2006-11-21 07:52:16 51°15.138 2°54.327 -999 0.071161 0.360403 -2.871232
2006-11-21 07:52:21 51°15.151 2°54.308 -999 0.071161 0.360403 -2.871232
2006-11-21 07:52:27 51°15.168 2°54.287 -999 0.071161 0.360403 -2.871232
2006-11-21 07:52:32 51°15.182 2°54.269 -999 0.071264 0.360953 -2.871232
2006-11-21 07:52:36 51°15.193 2°54.255 -999 0.071161 0.360416 -2.871232
2006-11-21 07:52:41 51°15.207 2°54.237 -999 0.071161 0.360416 -2.871232
2006-11-21 07:52:47 51°15.224 2°54.216 -999 0.071161 0.360422 -2.871232
2006-11-21 07:52:52 51°15.238 2°54.199 -999 0.071058 0.359904 -2.871232
2006-11-21 07:52:57 51°15.252 2°54.182 -999 0.071058 0.359904 -2.871232
2006-11-21 07:53:01 51°15.264 2°54.169 -999 0.071058 0.359904 -2.871232
2006-11-21 07:53:07 51°15.281 2°54.149 -999 0.071161 0.360454 -2.871232
2006-11-21 07:53:12 51°15.296 2°54.132 -999 0.071058 0.359924 -2.871232
2006-11-21 07:53:16 51°15.308 2°54.119 -999 0.071161 0.360467 -2.871232
2006-11-21 07:53:22 51°15.325 2°54.099 -999 0.071161 0.360467 -2.871232
2006-11-21 07:53:27 51°15.339 2°54.083 -999 0.071161 0.360467 -2.871232
2006-11-21 07:53:31 51°15.351 2°54.068 -999 0.071161 0.360474 -2.871232
2006-11-21 07:53:37 51°15.368 2°54.048 -999 0.071161 0.36048 -2.871232
2006-11-21 07:53:41 51°15.379 2°54.035 -999 0.071161 0.360486 -2.871232
2006-11-21 07:53:47 51°15.397 2°54.014 -999 0.071058 0.359949 -2.871232
2006-11-21 07:53:52 51°15.411 2°53.997 -999 0.071058 0.359956 -2.871232
2006-11-21 07:53:56 51°15.423 2°53.984 -999 0.071058 0.359956 -2.871232
2006-11-21 07:54:02 51°15.441 2°53.964 -999 0.071058 0.359949 -2.871232
2006-11-21 07:54:07 51°15.455 2°53.948 -999 0.071161 0.360499 -2.871232
2006-11-21 07:54:12 51°15.471 2°53.933 -999 0.071161 0.360506 -2.871232
2006-11-21 07:54:17 51°15.485 2°53.916 -999 0.071161 0.360512 -2.871232
2006-11-21 07:54:22 51°15.5 2°53.901 -999 0.071058 0.359981 -2.871232
2006-11-21 07:54:27 51°15.515 2°53.885 -999 0.071058 0.359981 -2.871232
2006-11-21 07:54:32 51°15.53 2°53.869 -999 0.071161 0.360531 -2.871232
2006-11-21 07:54:37 51°15.545 2°53.854 -999 0.071161 0.360538 -2.871232
2006-11-21 07:54:41 51°15.557 2°53.841 -999 0.071058 0.360014 -2.871232
2006-11-21 07:54:46 51°15.572 2°53.827 -999 0.071161 0.360557 -2.871232
2006-11-21 07:54:52 51°15.59 2°53.809 -999 0.071058 0.360014 -2.871232
2006-11-21 07:54:56 51°15.602 2°53.797 -999 0.071058 0.360014 -2.871232
2006-11-21 07:55:01 51°15.616 2°53.781 -999 0.071058 0.360014 -2.871232
2006-11-21 07:55:07 51°15.633 2°53.762 -999 0.071058 0.360014 -2.871232
2006-11-21 07:55:12 51°15.648 2°53.746 -999 0.071058 0.360014 -2.871232
2006-11-21 07:55:17 51°15.663 2°53.731 -999 0.071058 0.36002 -2.871232
2006-11-21 07:55:22 51°15.678 2°53.715 -999 0.071058 0.360027 -2.871232
2006-11-21 07:55:27 51°15.693 2°53.699 -999 0.071058 0.360027 -2.871232
2006-11-21 07:55:31 51°15.704 2°53.687 -999 0.071161 0.360577 -2.871232
2006-11-21 07:55:37 51°15.722 2°53.669 -999 0.071058 0.360039 -2.871232
2006-11-21 07:55:42 51°15.738 2°53.655 -999 0.071161 0.36059 -2.871232
2006-11-21 07:55:47 51°15.752 2°53.64 -999 0.071058 0.360059 -2.871232
2006-11-21 07:55:51 51°15.764 2°53.628 -999 0.071058 0.360065 -2.871232
2006-11-21 07:55:57 51°15.782 2°53.61 -999 0.071058 0.360065 -2.871232
2006-11-21 07:56:02 51°15.797 2°53.595 -999 0.071058 0.360072 -2.871232
2006-11-21 07:56:07 51°15.812 2°53.58 -999 0.071058 0.360078 -2.871232
2006-11-21 07:56:11 51°15.824 2°53.568 -999 0.071058 0.360084 -2.871232
2006-11-21 07:56:17 51°15.841 2°53.549 -999 0.071058 0.360091 -2.871232
2006-11-21 07:56:22 51°15.856 2°53.535 -999 0.071058 0.360097 -2.871232
2006-11-21 07:56:27 51°15.87 2°53.52 -999 0.071058 0.360097 -2.871232
2006-11-21 07:56:31 51°15.882 2°53.508 -999 0.071058 0.360091 -2.871232
2006-11-21 07:56:37 51°15.9 2°53.491 -999 0.071161 0.360635 -2.871232
2006-11-21 07:56:41 51°15.912 2°53.479 -999 0.071058 0.360097 -2.871232
2006-11-21 07:56:47 51°15.93 2°53.462 -999 0.071058 0.360117 -2.871232
2006-11-21 07:56:51 51°15.942 2°53.451 -999 0.070955 0.359579 -2.871232
2006-11-21 07:56:57 51°15.96 2°53.434 -999 0.070955 0.359579 -2.871232
2006-11-21 07:57:01 51°15.972 2°53.422 -999 0.071058 0.360117 -2.871232
2006-11-21 07:57:07 51°15.99 2°53.406 -999 0.071058 0.36013 -2.871232
2006-11-21 07:57:12 51°16.005 2°53.392 -999 0.071161 0.360667 -2.871232
2006-11-21 07:57:17 51°16.02 2°53.378 -999 0.071058 0.360142 -2.871232
2006-11-21 07:57:21 51°16.032 2°53.367 -999 0.071161 0.360686 -2.871232
2006-11-21 07:57:27 51°16.049 2°53.35 -999 0.071161 0.360686 -2.871232
2006-11-21 07:57:32 51°16.065 2°53.337 -999 0.071058 0.360149 -2.871232
2006-11-21 07:57:37 51°16.08 2°53.324 -999 0.071058 0.360162 -2.871232
2006-11-21 07:57:41 51°16.092 2°53.313 -999 0.071058 0.360168 -2.871232
2006-11-21 07:57:47 51°16.11 2°53.297 -999 0.071058 0.360168 -2.871232
2006-11-21 07:57:51 51°16.122 2°53.287 -999 0.071058 0.360188 -2.871232
2006-11-21 07:57:57 51°16.141 2°53.271 -999 0.071058 0.360188 -2.871232
2006-11-21 07:58:02 51°16.156 2°53.257 -999 0.071058 0.360188 -2.871232
2006-11-21 07:58:06 51°16.168 2°53.246 -999 0.071058 0.360194 -2.871232
2006-11-21 07:58:11 51°16.182 2°53.234 -999 0.071058 0.360188 -2.871232
2006-11-21 07:58:17 51°16.201 2°53.218 -999 0.071058 0.360194 -2.871232
2006-11-21 07:58:22 51°16.216 2°53.205 -999 0.071058 0.360188 -2.871232
2006-11-21 07:58:27 51°16.231 2°53.193 -999 0.071058 0.360188 -2.871232
2006-11-21 07:58:31 51°16.243 2°53.183 -999 0.071058 0.3602 -2.871232
2006-11-21 07:58:37 51°16.261 2°53.167 -999 0.071161 0.360744 -2.871232
2006-11-21 07:58:42 51°16.277 2°53.155 -999 0.071058 0.360213 -2.871232
2006-11-21 07:58:47 51°16.292 2°53.142 -999 0.071058 0.36022 -2.871232
2006-11-21 07:58:52 51°16.308 2°53.13 -999 0.071058 0.360233 -2.871232
2006-11-21 07:58:57 51°16.323 2°53.118 -999 0.071058 0.360233 -2.871232
2006-11-21 07:59:02 51°16.338 2°53.105 -999 0.071058 0.360239 -2.871232
2006-11-21 07:59:07 51°16.354 2°53.092 -999 0.071058 0.360258 -2.871232
2006-11-21 07:59:12 51°16.368 2°53.081 -999 0.071058 0.360258 -2.871232
2006-11-21 07:59:17 51°16.384 2°53.068 -999 0.071058 0.360265 -2.871232
2006-11-21 07:59:21 51°16.395 2°53.057 -999 0.071161 0.360796 -2.871232
2006-11-21 07:59:26 51°16.41 2°53.045 -999 0.071161 0.360796 -2.871232
2006-11-21 07:59:31 51°16.426 2°53.033 -999 0.070955 0.359721 -2.871232
2006-11-21 07:59:37 51°16.444 2°53.019 -999 0.070955 0.359714 -2.871232
2006-11-21 07:59:41 51°16.456 2°53.01 -999 0.071058 0.360271 -2.871232
2006-11-21 07:59:47 51°16.474 2°52.995 -999 0.071058 0.360265 -2.871232
2006-11-21 07:59:52 51°16.49 2°52.984 -999 0.071058 0.360271 -2.871232
2006-11-21 07:59:56 51°16.502 2°52.974 -999 0.071058 0.360271 -2.871232
2006-11-21 08:00:01 51°16.517 2°52.962 -999 0.071058 0.360278 -2.871232
2006-11-21 08:00:07 51°16.536 2°52.948 -999 0.070955 0.359753 -2.871232
2006-11-21 08:00:11 51°16.548 2°52.938 -999 0.071058 0.360291 -2.871232
2006-11-21 08:00:17 51°16.566 2°52.923 -999 0.070955 0.359753 -2.871232
2006-11-21 08:00:22 51°16.581 2°52.911 -999 0.071058 0.36031 -2.871232
2006-11-21 08:00:27 51°16.597 2°52.899 -999 0.071058 0.36031 -2.871232
2006-11-21 08:00:32 51°16.612 2°52.887 -999 0.070955 0.359772 -2.871232
2006-11-21 08:00:37 51°16.627 2°52.875 -999 0.070955 0.359785 -2.871232
2006-11-21 08:00:42 51°16.643 2°52.862 -999 0.070955 0.359785 -2.871232
2006-11-21 08:00:47 51°16.658 2°52.851 -999 0.071058 0.360342 -2.871232
2006-11-21 08:00:51 51°16.67 2°52.841 -999 0.071058 0.360342 -2.871232
2006-11-21 08:00:57 51°16.688 2°52.827 -999 0.071058 0.360342 -2.871232
2006-11-21 08:01:01 51°16.701 2°52.817 -999 0.070955 0.359805 -2.871232
2006-11-21 08:01:07 51°16.719 2°52.803 -999 0.071058 0.360355 -2.871232
2006-11-21 08:01:12 51°16.734 2°52.793 -999 0.070955 0.359817 -2.871232
2006-11-21 08:01:17 51°16.75 2°52.782 -999 0.071058 0.360362 -2.871232
2006-11-21 08:01:21 51°16.762 2°52.773 -999 0.071058 0.360368 -2.871232
2006-11-21 08:01:27 51°16.781 2°52.762 -999 0.071058 0.360368 -2.871232
2006-11-21 08:01:32 51°16.797 2°52.752 -999 0.071058 0.360362 -2.871232
2006-11-21 08:01:37 51°16.812 2°52.742 -999 0.070955 0.359843 -2.871232
2006-11-21 08:01:41 51°16.824 2°52.734 -999 0.071058 0.360387 -2.871232
2006-11-21 08:01:47 51°16.843 2°52.722 -999 0.070955 0.35985 -2.871232
2006-11-21 08:01:51 51°16.856 2°52.713 -999 0.071161 0.360938 -2.871232
2006-11-21 08:01:57 51°16.874 2°52.701 -999 0.071161 0.360938 -2.871232
2006-11-21 08:02:01 51°16.887 2°52.693 -999 0.070955 0.359869 -2.871232
2006-11-21 08:02:07 51°16.905 2°52.68 -999 0.071058 0.360413 -2.871232
2006-11-21 08:02:12 51°16.921 2°52.67 -999 0.071058 0.360426 -2.871232
2006-11-21 08:02:17 51°16.937 2°52.661 -999 0.071058 0.360433 -2.871232
2006-11-21 08:02:21 51°16.949 2°52.653 -999 0.070955 0.359908 -2.871232
2006-11-21 08:02:27 51°16.968 2°52.642 -999 0.070955 0.359908 -2.871232
2006-11-21 08:02:31 51°16.981 2°52.634 -999 0.071058 0.360458 -2.871232
2006-11-21 08:02:37 51°17 2°52.622 -999 0.070955 0.359908 -2.871232
2006-11-21 08:02:42 51°17.016 2°52.613 -999 0.070955 0.359908 -2.871232
2006-11-21 08:02:47 51°17.032 2°52.604 -999 0.070955 0.359901 -2.871232
2006-11-21 08:02:51 51°17.045 2°52.598 -999 0.070955 0.359914 -2.871232
2006-11-21 08:02:56 51°17.061 2°52.591 -999 0.070955 0.359914 -2.871232
2006-11-21 08:03:01 51°17.077 2°52.584 -999 0.070955 0.359921 -2.871232
2006-11-21 08:03:07 51°17.096 2°52.577 -999 0.070955 0.359927 -2.871232
2006-11-21 08:03:11 51°17.109 2°52.573 -999 0.070955 0.359946 -2.871232
2006-11-21 08:03:17 51°17.128 2°52.568 -999 0.070955 0.359959 -2.871232
2006-11-21 08:03:21 51°17.142 2°52.565 -999 0.071058 0.36051 -2.871232
2006-11-21 08:03:27 51°17.162 2°52.561 -999 0.071058 0.36051 -2.871232
2006-11-21 08:03:32 51°17.178 2°52.557 -999 0.070955 0.359972 -2.871232
2006-11-21 08:03:36 51°17.191 2°52.554 -999 0.071058 0.360516 -2.871232
2006-11-21 08:03:41 51°17.207 2°52.549 -999 0.070955 0.359972 -2.871232
2006-11-21 08:03:47 51°17.227 2°52.545 -999 0.070955 0.359985 -2.871232
2006-11-21 08:03:52 51°17.244 2°52.541 -999 0.070955 0.359991 -2.871232
2006-11-21 08:03:57 51°17.26 2°52.537 -999 0.070955 0.359991 -2.871232
2006-11-21 08:04:01 51°17.273 2°52.533 -999 0.070955 0.359991 -2.871232
2006-11-21 08:04:07 51°17.293 2°52.529 -999 0.071058 0.360529 -2.871232
2006-11-21 08:04:12 51°17.31 2°52.526 -999 0.070955 0.360011 -2.871232
2006-11-21 08:04:17 51°17.327 2°52.522 -999 0.070955 0.360011 -2.871232
2006-11-21 08:04:21 51°17.34 2°52.52 -999 0.070852 0.359486 -2.871232
2006-11-21 08:04:27 51°17.36 2°52.516 -999 0.070852 0.359486 -2.871232
2006-11-21 08:04:32 51°17.376 2°52.514 -999 0.071058 0.360575 -2.871232
2006-11-21 08:04:37 51°17.393 2°52.509 -999 0.070955 0.360037 -2.871232
2006-11-21 08:04:42 51°17.41 2°52.508 -999 0.070955 0.360043 -2.871232
2006-11-21 08:04:47 51°17.426 2°52.504 -999 0.070955 0.360043 -2.871232
2006-11-21 08:04:51 51°17.439 2°52.502 -999 0.070955 0.360043 -2.871232
2006-11-21 08:04:57 51°17.459 2°52.498 -999 0.070955 0.360043 -2.871232
2006-11-21 08:05:01 51°17.473 2°52.496 -999 0.071058 0.360581 -2.871232
2006-11-21 08:05:07 51°17.493 2°52.491 -999 0.070852 0.359512 -2.871232
2006-11-21 08:05:12 51°17.509 2°52.489 -999 0.070955 0.360062 -2.871232
2006-11-21 08:05:16 51°17.523 2°52.486 -999 0.070955 0.360062 -2.871232
2006-11-21 08:05:21 51°17.539 2°52.484 -999 0.070852 0.359544 -2.871232
2006-11-21 08:05:27 51°17.559 2°52.481 -999 0.070852 0.359544 -2.871232
2006-11-21 08:05:31 51°17.572 2°52.479 -999 0.071058 0.36062 -2.871232
2006-11-21 08:05:36 51°17.588 2°52.478 -999 0.070955 0.360095 -2.871232
2006-11-21 08:05:41 51°17.604 2°52.476 -999 0.070955 0.360108 -2.871232
2006-11-21 08:05:47 51°17.624 2°52.474 -999 0.070852 0.359582 -2.871232
2006-11-21 08:05:51 51°17.637 2°52.473 -999 0.070955 0.360114 -2.871232
2006-11-21 08:05:56 51°17.654 2°52.471 -999 0.070955 0.360114 -2.871232
2006-11-21 08:06:01 51°17.67 2°52.471 -999 0.070955 0.360127 -2.871232
2006-11-21 08:06:07 51°17.69 2°52.467 -999 0.070852 0.359563 -2.871232
2006-11-21 08:06:12 51°17.706 2°52.469 -999 0.070955 0.36014 -2.871232
2006-11-21 08:06:17 51°17.723 2°52.465 -999 0.070955 0.360133 -2.871232
2006-11-21 08:06:22 51°17.739 2°52.467 -999 0.070955 0.360172 -2.871232
2006-11-21 08:06:27 51°17.755 2°52.463 -999 0.070955 0.360172 -2.871232
2006-11-21 08:06:32 51°17.772 2°52.464 -999 0.070955 0.360198 -2.871232
2006-11-21 08:06:37 51°17.788 2°52.462 -999 0.070955 0.360217 -2.871232
2006-11-21 08:06:42 51°17.804 2°52.461 -999 0.070955 0.360224 -2.871232
2006-11-21 08:06:47 51°17.821 2°52.46 -999 0.070852 0.359685 -2.871232
2006-11-21 08:06:52 51°17.837 2°52.461 -999 0.070955 0.360185 -2.871232
2006-11-21 08:06:57 51°17.853 2°52.463 -999 0.070955 0.360185 -2.871232
2006-11-21 08:07:01 51°17.866 2°52.467 -999 0.070955 0.360224 -2.871232
2006-11-21 08:07:07 51°17.886 2°52.468 -999 0.070852 0.359621 -2.871232
2006-11-21 08:07:11 51°17.898 2°52.476 -999 0.070955 0.360211 -2.871232
2006-11-21 08:07:17 51°17.918 2°52.478 -999 0.070955 0.360204 -2.871232
2006-11-21 08:07:21 51°17.93 2°52.483 -999 0.070955 0.360211 -2.871232
2006-11-21 08:07:27 51°17.949 2°52.49 -999 0.070955 0.360211 -2.871232
2006-11-21 08:07:32 51°17.966 2°52.495 -999 0.070955 0.360217 -2.871232
2006-11-21 08:07:37 51°17.982 2°52.501 -999 0.070852 0.359685 -2.871232
2006-11-21 08:07:42 51°17.998 2°52.505 -999 0.070955 0.360204 -2.871232
2006-11-21 08:07:47 51°18.014 2°52.512 -999 0.070955 0.360211 -2.871232
2006-11-21 08:07:51 51°18.027 2°52.515 -999 0.070955 0.360198 -2.871232
2006-11-21 08:07:57 51°18.046 2°52.524 -999 0.070955 0.360198 -2.871232
2006-11-21 08:08:01 51°18.059 2°52.529 -999 0.070955 0.360211 -2.871232
2006-11-21 08:08:07 51°18.078 2°52.538 -999 0.070955 0.360185 -2.871232
2006-11-21 08:08:12 51°18.093 2°52.549 -999 0.070955 0.36023 -2.871232
2006-11-21 08:08:16 51°18.106 2°52.557 -999 0.070852 0.359692 -2.871232
2006-11-21 08:08:21 51°18.121 2°52.569 -999 0.070955 0.360243 -2.871232
2006-11-21 08:08:26 51°18.135 2°52.581 -999 0.070955 0.360243 -2.871232
2006-11-21 08:08:32 51°18.15 2°52.601 -999 0.070852 0.359718 -2.871232
2006-11-21 08:08:37 51°18.163 2°52.616 -999 0.070852 0.359744 -2.871232
2006-11-21 08:08:42 51°18.175 2°52.635 -999 0.070852 0.35975 -2.871232
2006-11-21 08:08:47 51°18.188 2°52.652 -999 0.070852 0.359718 -2.871232
2006-11-21 08:08:52 51°18.198 2°52.673 -999 0.070852 0.359744 -2.871232
2006-11-21 08:08:57 51°18.21 2°52.691 -999 0.070852 0.359744 -2.871232
2006-11-21 08:09:01 51°18.217 2°52.708 -999 0.070852 0.359718 -2.871232
2006-11-21 08:09:05 51°18.224 2°52.725 -999 0.070955 0.360288 -2.871232
2006-11-21 08:09:11 51°18.237 2°52.749 -999 0.070955 0.360262 -2.871232
2006-11-21 08:09:17 51°18.246 2°52.777 -999 0.070852 0.359808 -2.871232
2006-11-21 08:09:22 51°18.258 2°52.795 -999 0.070955 0.360308 -2.871232
2006-11-21 08:09:27 51°18.266 2°52.817 -999 0.070955 0.360308 -2.871232
2006-11-21 08:09:31 51°18.275 2°52.832 -999 0.070955 0.36034 -2.871232
2006-11-21 08:09:37 51°18.287 2°52.858 -999 0.070852 0.359814 -2.871232
2006-11-21 08:09:41 51°18.296 2°52.873 -999 0.070955 0.36034 -2.871232
2006-11-21 08:09:47 51°18.309 2°52.897 -999 0.070955 0.360327 -2.871232
2006-11-21 08:09:51 51°18.318 2°52.913 -999 0.070852 0.359769 -2.871232
2006-11-21 08:09:57 51°18.33 2°52.936 -999 0.070852 0.359769 -2.871232
2006-11-21 08:10:01 51°18.339 2°52.951 -999 0.070852 0.359763 -2.871232
2006-11-21 08:10:07 51°18.351 2°52.977 -999 0.070955 0.360308 -2.871232
2006-11-21 08:10:11 51°18.361 2°52.991 -999 0.070955 0.360308 -2.871232
2006-11-21 08:10:17 51°18.374 2°53.015 -999 0.070852 0.359795 -2.871232
2006-11-21 08:10:21 51°18.382 2°53.032 -999 0.070955 0.360372 -2.871232
2006-11-21 08:10:27 51°18.397 2°53.054 -999 0.070955 0.360372 -2.871232
2006-11-21 08:10:32 51°18.406 2°53.075 -999 0.070852 0.359827 -2.871232
2006-11-21 08:10:36 51°18.414 2°53.092 -999 0.070955 0.36043 -2.871232
2006-11-21 08:10:41 51°18.426 2°53.112 -999 0.070852 0.359885 -2.871232
2006-11-21 08:10:47 51°18.439 2°53.134 -999 0.070852 0.359879 -2.871232
2006-11-21 08:10:51 51°18.448 2°53.149 -999 0.070852 0.359879 -2.871232
2006-11-21 08:10:57 51°18.46 2°53.175 -999 0.070852 0.359879 -2.871232
2006-11-21 08:11:01 51°18.471 2°53.188 -999 0.070852 0.359866 -2.871232
2006-11-21 08:11:07 51°18.484 2°53.212 -999 0.070852 0.35986 -2.871232
2006-11-21 08:11:12 51°18.497 2°53.229 -999 0.070852 0.35984 -2.871232
2006-11-21 08:11:17 51°18.507 2°53.252 -999 0.070749 0.359328 -2.871232
2006-11-21 08:11:21 51°18.518 2°53.264 -999 0.070852 0.359873 -2.871232
2006-11-21 08:11:27 51°18.53 2°53.289 -999 0.070852 0.359873 -2.871232
2006-11-21 08:11:31 51°18.541 2°53.302 -999 0.070852 0.359885 -2.871232
2006-11-21 08:11:37 51°18.555 2°53.326 -999 0.070955 0.360456 -2.871232
2006-11-21 08:11:41 51°18.566 2°53.338 -999 0.070852 0.359898 -2.871232
2006-11-21 08:11:47 51°18.579 2°53.362 -999 0.070852 0.359924 -2.871232
2006-11-21 08:11:51 51°18.589 2°53.376 -999 0.070749 0.359353 -2.871232
2006-11-21 08:11:57 51°18.604 2°53.399 -999 0.070749 0.359353 -2.871232
2006-11-21 08:12:01 51°18.613 2°53.414 -999 0.070852 0.359918 -2.871232
2006-11-21 08:12:06 51°18.627 2°53.432 -999 0.070852 0.359892 -2.871232
2006-11-21 08:12:12 51°18.642 2°53.455 -999 0.070852 0.359918 -2.871232
2006-11-21 08:12:16 51°18.652 2°53.47 -999 0.070852 0.359898 -2.871232
2006-11-21 08:12:21 51°18.666 2°53.486 -999 0.070852 0.359918 -2.871232
2006-11-21 08:12:27 51°18.68 2°53.509 -999 0.070852 0.359918 -2.871232
2006-11-21 08:12:31 51°18.69 2°53.523 -999 0.070749 0.359373 -2.871232
2006-11-21 08:12:36 51°18.702 2°53.544 -999 0.070852 0.359956 -2.871232
2006-11-21 08:12:42 51°18.717 2°53.565 -999 0.070749 0.359399 -2.871232
2006-11-21 08:12:47 51°18.727 2°53.585 -999 0.070955 0.360553 -2.871232
2006-11-21 08:12:51 51°18.737 2°53.6 -999 0.070852 0.359976 -2.871232
2006-11-21 08:12:56 51°18.75 2°53.618 -999 0.070852 0.359976 -2.871232
2006-11-21 08:13:01 51°18.762 2°53.638 -999 0.070852 0.359989 -2.871232
2006-11-21 08:13:07 51°18.776 2°53.66 -999 0.070852 0.359976 -2.871232
2006-11-21 08:13:12 51°18.788 2°53.679 -999 0.070852 0.359976 -2.871232
2006-11-21 08:13:17 51°18.8 2°53.699 -999 0.070749 0.359463 -2.871232
2006-11-21 08:13:21 51°18.81 2°53.714 -999 0.070852 0.35995 -2.871232
2006-11-21 08:13:27 51°18.825 2°53.734 -999 0.070852 0.35995 -2.871232
2006-11-21 08:13:32 51°18.837 2°53.754 -999 0.070852 0.360028 -2.871232
2006-11-21 08:13:37 51°18.85 2°53.769 -999 0.070852 0.359989 -2.871232
2006-11-21 08:13:41 51°18.858 2°53.788 -999 0.070852 0.360086 -2.871232
2006-11-21 08:13:47 51°18.875 2°53.804 -999 0.070852 0.360047 -2.871232
2006-11-21 08:13:51 51°18.884 2°53.82 -999 0.070852 0.360073 -2.871232
2006-11-21 08:13:57 51°18.9 2°53.839 -999 0.070852 0.360073 -2.871232
2006-11-21 08:14:01 51°18.91 2°53.853 -999 0.070749 0.359495 -2.871232
2006-11-21 08:14:05 51°18.92 2°53.868 -999 0.070749 0.359476 -2.871232
2006-11-21 08:14:11 51°18.936 2°53.888 -999 0.070852 0.359982 -2.871232
2006-11-21 08:14:17 51°18.951 2°53.909 -999 0.070852 0.359963 -2.871232
2006-11-21 08:14:21 51°18.96 2°53.922 -999 0.070852 0.359969 -2.871232
2006-11-21 08:14:27 51°18.975 2°53.945 -999 0.070852 0.359969 -2.871232
2006-11-21 08:14:31 51°18.985 2°53.958 -999 0.070749 0.359424 -2.871232
2006-11-21 08:14:37 51°18.998 2°53.982 -999 0.070749 0.359463 -2.871232
2006-11-21 08:14:42 51°19.011 2°53.999 -999 0.070749 0.359489 -2.871232
2006-11-21 08:14:47 51°19.023 2°54.018 -999 0.070852 0.360053 -2.871232
2006-11-21 08:14:51 51°19.033 2°54.031 -999 0.070852 0.360086 -2.871232
2006-11-21 08:14:57 51°19.047 2°54.053 -999 0.070852 0.360086 -2.871232
2006-11-21 08:15:01 51°19.057 2°54.066 -999 0.070749 0.359528 -2.871232
2006-11-21 08:15:07 51°19.071 2°54.09 -999 0.070852 0.360163 -2.871232
2006-11-21 08:15:11 51°19.083 2°54.1 -999 0.070749 0.359579 -2.871232
2006-11-21 08:15:17 51°19.097 2°54.124 -999 0.070749 0.359598 -2.871232
2006-11-21 08:15:21 51°19.107 2°54.136 -999 0.070852 0.360137 -2.871232
2006-11-21 08:15:27 51°19.121 2°54.16 -999 0.070852 0.360137 -2.871232
2006-11-21 08:15:32 51°19.133 2°54.178 -999 0.070852 0.360008 -2.871232
2006-11-21 08:15:37 51°19.144 2°54.198 -999 0.070646 0.359163 -2.871232
2006-11-21 08:15:42 51°19.155 2°54.218 -999 0.070852 0.359885 -2.871232
2006-11-21 08:15:47 51°19.169 2°54.234 -999 0.079497 0.404681 -2.871232
2006-11-21 08:15:52 51°19.18 2°54.253 -999 1.540251 9.666664 -2.871232
2006-11-21 08:15:57 51°19.192 2°54.271 -999 1.540251 9.666664 -2.871232
2006-11-21 08:16:01 51°19.203 2°54.283 -999 2.507446 17.684273 -2.871232
2006-11-21 08:16:07 51°19.218 2°54.305 -999 3.188117 24.285193 -2.871232
2006-11-21 08:16:12 51°19.231 2°54.321 -999 3.885263 31.228152 -2.871232
2006-11-21 08:16:17 51°19.243 2°54.34 -999 3.96789 32.448051 -2.871232
2006-11-21 08:16:21 51°19.254 2°54.352 -999 3.965717 32.736839 -2.871232
2006-11-21 08:16:27 51°19.267 2°54.378 -999 3.965717 32.736839 -2.871232
2006-11-21 08:16:31 51°19.279 2°54.388 -999 3.94115 32.664378 -2.871232
2006-11-21 08:16:37 51°19.291 2°54.413 -999 3.948512 32.824964 -2.871232
2006-11-21 08:16:41 51°19.302 2°54.424 -999 3.913267 32.554426 -2.871232
2006-11-21 08:16:47 51°19.317 2°54.446 -999 3.926951 32.720144 -2.871232
2006-11-21 08:16:52 51°19.33 2°54.462 -999 3.931201 32.788244 -2.871232
2006-11-21 08:16:56 51°19.341 2°54.475 -999 3.931201 32.788244 -2.871232
2006-11-21 08:17:01 51°19.352 2°54.494 -999 3.914823 32.6606 -2.871232
2006-11-21 08:17:07 51°19.366 2°54.516 -999 3.932031 32.833413 -2.871232
2006-11-21 08:17:11 51°19.376 2°54.531 -999 3.927263 32.800192 -2.871232
2006-11-21 08:17:17 51°19.39 2°54.552 -999 3.93172 32.854473 -2.871232
2006-11-21 08:17:21 51°19.4 2°54.567 -999 3.9283 32.828199 -2.871232
2006-11-21 08:17:27 51°19.415 2°54.588 -999 3.9283 32.828199 -2.871232
2006-11-21 08:17:32 51°19.427 2°54.605 -999 3.927989 32.835686 -2.871232
2006-11-21 08:17:36 51°19.437 2°54.619 -999 3.916379 32.733902 -2.871232
2006-11-21 08:17:41 51°19.449 2°54.638 -999 3.911403 32.691535 -2.871232
2006-11-21 08:17:47 51°19.463 2°54.658 -999 3.923221 32.808023 -2.871232
2006-11-21 08:17:52 51°19.475 2°54.676 -999 3.925812 32.836178 -2.871232
2006-11-21 08:17:57 51°19.487 2°54.694 -999 3.925812 32.836178 -2.871232
2006-11-21 08:18:01 51°19.496 2°54.709 -999 3.92405 32.824544 -2.871232
2006-11-21 08:18:07 51°19.511 2°54.73 -999 3.927367 32.860277 -2.871232
2006-11-21 08:18:11 51°19.521 2°54.745 -999 3.910367 32.704169 -2.871232
2006-11-21 08:18:16 51°19.532 2°54.765 -999 3.907361 32.683317 -2.871232
2006-11-21 08:18:21 51°19.545 2°54.781 -999 3.91555 32.759665 -2.871232
2006-11-21 08:18:27 51°19.559 2°54.804 -999 3.91555 32.759665 -2.871232
2006-11-21 08:18:31 51°19.57 2°54.816 -999 3.926331 32.867422 -2.871232
2006-11-21 08:18:37 51°19.583 2°54.84 -999 3.910263 32.71994 -2.871232
2006-11-21 08:18:41 51°19.594 2°54.852 -999 3.925398 32.865125 -2.871232
2006-11-21 08:18:45 51°19.604 2°54.866 -999 3.926435 32.878807 -2.871232
2006-11-21 08:18:51 51°19.617 2°54.888 -999 3.824028 31.927307 -2.871232
2006-11-21 08:18:57 51°19.633 2°54.907 -999 3.824028 31.927307 -2.871232
2006-11-21 08:19:01 51°19.643 2°54.921 -999 3.922185 32.841541 -2.871232
2006-11-21 08:19:07 51°19.658 2°54.944 -999 3.92488 32.870704 -2.871232
2006-11-21 08:19:12 51°19.671 2°54.96 -999 3.926746 32.888124 -2.871232
2006-11-21 08:19:17 51°19.682 2°54.979 -999 3.92799 32.906157 -2.871232
2006-11-21 08:19:21 51°19.692 2°54.992 -999 3.930167 32.92729 -2.871232
2006-11-21 08:19:27 51°19.707 2°55.013 -999 3.930167 32.92729 -2.871232
2006-11-21 08:19:31 51°19.717 2°55.028 -999 3.929234 32.921789 -2.871232
2006-11-21 08:19:37 51°19.734 2°55.048 -999 3.930996 32.942267 -2.871232
2006-11-21 08:19:41 51°19.745 2°55.062 -999 3.929545 32.931924 -2.871232
2006-11-21 08:19:47 51°19.759 2°55.082 -999 3.927886 32.917232 -2.871232
2006-11-21 08:19:52 51°19.772 2°55.1 -999 3.926331 32.906722 -2.871232
2006-11-21 08:19:57 51°19.785 2°55.118 -999 3.926331 32.906722 -2.871232
2006-11-21 08:20:01 51°19.794 2°55.132 -999 3.928197 32.924958 -2.871232
2006-11-21 08:20:07 51°19.809 2°55.153 -999 3.928301 32.929141 -2.871232
2006-11-21 08:20:12 51°19.822 2°55.169 -999 3.929441 32.941404 -2.871232
2006-11-21 08:20:17 51°19.834 2°55.188 -999 3.928405 32.934128 -2.871232
2006-11-21 08:20:21 51°19.845 2°55.2 -999 3.92685 32.919597 -2.871232
2006-11-21 08:20:27 51°19.86 2°55.222 -999 3.92685 32.919597 -2.871232
2006-11-21 08:20:32 51°19.873 2°55.238 -999 3.925399 32.906839 -2.871232
2006-11-21 08:20:36 51°19.882 2°55.254 -999 3.925917 32.912486 -2.871232
2006-11-21 08:20:42 51°19.899 2°55.271 -999 3.927887 32.933304 -2.871232
2006-11-21 08:20:47 51°19.911 2°55.289 -999 3.926746 32.925058 -2.871232
2006-11-21 08:20:51 51°19.921 2°55.305 -999 3.925191 32.912936 -2.871232
2006-11-21 08:20:57 51°19.938 2°55.323 -999 3.925191 32.912936 -2.871232
2006-11-21 08:21:01 51°19.946 2°55.34 -999 3.925399 32.915677 -2.871232
2006-11-21 08:21:07 51°19.962 2°55.36 -999 3.924984 32.913409 -2.871232
2006-11-21 08:21:11 51°19.97 2°55.376 -999 3.924673 32.912109 -2.871232
2006-11-21 08:21:16 51°19.981 2°55.396 -999 3.927161 32.938584 -2.871232
2006-11-21 08:21:21 51°19.992 2°55.416 -999 3.925917 32.927758 -2.871232
2006-11-21 08:21:27 51°20.006 2°55.441 -999 3.925917 32.927758 -2.871232
2006-11-21 08:21:32 51°20.017 2°55.461 -999 3.927265 32.941967 -2.871232
2006-11-21 08:21:37 51°20.026 2°55.483 -999 3.925295 32.92516 -2.871232
2006-11-21 08:21:42 51°20.039 2°55.503 -999 3.926332 32.937266 -2.871232
2006-11-21 08:21:47 51°20.05 2°55.523 -999 3.925503 32.934338 -2.871232
2006-11-21 08:21:51 51°20.059 2°55.539 -999 3.924051 32.923179 -2.871232
2006-11-21 08:21:57 51°20.07 2°55.566 -999 3.924051 32.923179 -2.871232
2006-11-21 08:22:01 51°20.08 2°55.582 -999 3.926125 32.944179 -2.871232
2006-11-21 08:22:07 51°20.091 2°55.608 -999 3.926332 32.947729 -2.871232
2006-11-21 08:22:12 51°20.102 2°55.629 -999 3.925814 32.943685 -2.871232
2006-11-21 08:22:16 51°20.111 2°55.645 -999 3.926539 32.952084 -2.871232
2006-11-21 08:22:21 51°20.121 2°55.665 -999 3.922704 32.915401 -2.871232
2006-11-21 08:22:27 51°20.134 2°55.691 -999 3.922704 32.915401 -2.871232
2006-11-21 08:22:32 51°20.145 2°55.712 -999 3.924984 32.937538 -2.871232
2006-11-21 08:22:36 51°20.153 2°55.729 -999 3.924052 32.93203 -2.871232
2006-11-21 08:22:41 51°20.164 2°55.749 -999 3.925399 32.944637 -2.871232
2006-11-21 08:22:46 51°20.173 2°55.771 -999 3.925814 32.949321 -2.871232
2006-11-21 08:22:52 51°20.186 2°55.796 -999 3.925399 32.947858 -2.871232
2006-11-21 08:22:57 51°20.197 2°55.817 -999 3.925399 32.947858 -2.871232
2006-11-21 08:23:02 51°20.207 2°55.84 -999 3.925399 32.949469 -2.871232
2006-11-21 08:23:07 51°20.217 2°55.861 -999 3.925399 32.948663 -2.871232
2006-11-21 08:23:12 51°20.227 2°55.884 -999 3.923119 32.926521 -2.871232
2006-11-21 08:23:17 51°20.238 2°55.903 -999 3.923119 32.928936 -2.871232
2006-11-21 08:23:22 51°20.248 2°55.927 -999 3.922082 32.919237 -2.871232
2006-11-21 08:23:27 51°20.262 2°55.942 -999 3.922082 32.919237 -2.871232
2006-11-21 08:23:32 51°20.271 2°55.964 -999 3.922289 32.920372 -2.871232
2006-11-21 08:23:37 51°20.282 2°55.983 -999 3.923948 32.935085 -2.871232
2006-11-21 08:23:41 51°20.291 2°55.998 -999 3.923119 32.928131 -2.871232
2006-11-21 08:23:47 51°20.302 2°56.026 -999 3.923948 32.936695 -2.871232
2006-11-21 08:23:51 51°20.312 2°56.043 -999 3.92343 32.93104 -2.871232
2006-11-21 08:23:57 51°20.323 2°56.068 -999 3.92343 32.93104 -2.871232
2006-11-21 08:24:01 51°20.328 2°56.088 -999 3.924466 32.941544 -2.871232
2006-11-21 08:24:07 51°20.338 2°56.117 -999 3.923844 32.935725 -2.871232
2006-11-21 08:24:12 51°20.346 2°56.142 -999 3.923222 32.932321 -2.871232
2006-11-21 08:24:16 51°20.351 2°56.162 -999 3.923222 32.932321 -2.871232
2006-11-21 08:24:21 51°20.358 2°56.187 -999 3.924985 32.948005 -2.871232
2006-11-21 08:24:26 51°20.363 2°56.214 -999 3.924985 32.948005 -2.871232
2006-11-21 08:24:32 51°20.369 2°56.246 -999 3.924155 32.941856 -2.871232
2006-11-21 08:24:37 51°20.374 2°56.273 -999 3.923844 32.938946 -2.871232
2006-11-21 08:24:41 51°20.376 2°56.293 -999 3.924052 32.940886 -2.871232
2006-11-21 08:24:46 51°20.378 2°56.319 -999 3.923119 32.933766 -2.871232
2006-11-21 08:24:52 51°20.382 2°56.352 -999 3.923844 32.941362 -2.871232
2006-11-21 08:24:57 51°20.384 2°56.379 -999 3.923844 32.941362 -2.871232
2006-11-21 08:25:01 51°20.386 2°56.401 -999 3.923844 32.941362 -2.871232
2006-11-21 08:25:07 51°20.392 2°56.433 -999 3.923637 32.938616 -2.871232
2006-11-21 08:25:12 51°20.394 2°56.46 -999 3.922808 32.932466 -2.871232
2006-11-21 08:25:16 51°20.396 2°56.482 -999 3.9226 32.932136 -2.871232
2006-11-21 08:25:22 51°20.4 2°56.514 -999 3.92343 32.940703 -2.871232
2006-11-21 08:25:27 51°20.405 2°56.541 -999 3.92343 32.940703 -2.871232
2006-11-21 08:25:31 51°20.408 2°56.561 -999 3.924052 32.946524 -2.871232
2006-11-21 08:25:37 51°20.412 2°56.593 -999 3.923223 32.941179 -2.871232
2006-11-21 08:25:41 51°20.416 2°56.615 -999 3.922497 32.936804 -2.871232
2006-11-21 08:25:47 51°20.42 2°56.648 -999 3.922393 32.939055 -2.871232
2006-11-21 08:25:51 51°20.424 2°56.67 -999 3.919802 32.916408 -2.871232
2006-11-21 08:25:57 51°20.43 2°56.701 -999 3.919802 32.916408 -2.871232
2006-11-21 08:26:01 51°20.433 2°56.721 -999 3.92457 32.961852 -2.871232
2006-11-21 08:26:07 51°20.437 2°56.755 -999 3.924259 32.960553 -2.871232
2006-11-21 08:26:11 51°20.442 2°56.777 -999 3.924467 32.964107 -2.871232
2006-11-21 08:26:17 51°20.449 2°56.808 -999 3.924052 32.965063 -2.871232
2006-11-21 08:26:21 51°20.452 2°56.829 -999 3.923741 32.965377 -2.871232
2006-11-21 08:26:27 51°20.459 2°56.861 -999 3.923741 32.965377 -2.871232
2006-11-21 08:26:31 51°20.463 2°56.881 -999 3.923223 32.963749 -2.871232
2006-11-21 08:26:37 51°20.469 2°56.912 -999 3.922601 32.963571 -2.871232
2006-11-21 08:26:41 51°20.472 2°56.934 -999 3.921875 32.965649 -2.871232
2006-11-21 08:26:47 51°20.479 2°56.965 -999 3.921254 32.965471 -2.871232
2006-11-21 08:26:52 51°20.48 2°56.992 -999 3.920424 32.964157 -2.871232
2006-11-21 08:26:56 51°20.482 2°57.015 -999 3.920424 32.964157 -2.871232
2006-11-21 08:27:01 51°20.483 2°57.043 -999 3.919699 32.963008 -2.871232
2006-11-21 08:27:07 51°20.484 2°57.075 -999 3.918973 32.962666 -2.871232
2006-11-21 08:27:12 51°20.482 2°57.1 -999 3.918248 32.959093 -2.871232
2006-11-21 08:27:17 51°20.482 2°57.129 -999 3.917522 32.956327 -2.871232
2006-11-21 08:27:21 51°20.482 2°57.153 -999 3.916382 32.955327 -2.871232
2006-11-21 08:27:26 51°20.482 2°57.182 -999 3.916382 32.955327 -2.871232
2006-11-21 08:27:31 51°20.481 2°57.209 -999 3.915449 32.953847 -2.871232
2006-11-21 08:27:37 51°20.48 2°57.242 -999 3.914413 32.950587 -2.871232
2006-11-21 08:27:41 51°20.479 2°57.265 -999 3.912651 32.949407 -2.871232
2006-11-21 08:27:47 51°20.479 2°57.299 -999 3.910889 32.947419 -2.871232
2006-11-21 08:27:51 51°20.477 2°57.322 -999 3.909334 32.944951 -2.871232
2006-11-21 08:27:57 51°20.477 2°57.356 -999 3.909334 32.944951 -2.871232
2006-11-21 08:28:01 51°20.475 2°57.379 -999 3.907676 32.941508 -2.871232
2006-11-21 08:28:07 51°20.475 2°57.415 -999 3.906121 32.939848 -2.871232
2006-11-21 08:28:11 51°20.476 2°57.438 -999 3.904359 32.934619 -2.871232
2006-11-21 08:28:17 51°20.476 2°57.471 -999 3.90239 32.929058 -2.871232
2006-11-21 08:28:21 51°20.478 2°57.492 -999 3.899902 32.92429 -2.871232
2006-11-21 08:28:27 51°20.478 2°57.525 -999 3.899902 32.92429 -2.871232
2006-11-21 08:28:31 51°20.48 2°57.548 -999 3.897622 32.92066 -2.871232
2006-11-21 08:28:37 51°20.481 2°57.584 -999 3.894927 32.915557 -2.871232
2006-11-21 08:28:41 51°20.483 2°57.608 -999 3.892232 32.907205 -2.871232
2006-11-21 08:28:47 51°20.484 2°57.641 -999 3.890367 32.904229 -2.871232
2006-11-21 08:28:52 51°20.484 2°57.668 -999 3.888605 32.899794 -2.871232
2006-11-21 08:28:57 51°20.483 2°57.696 -999 3.888605 32.899794 -2.871232
2006-11-21 08:29:01 51°20.483 2°57.72 -999 3.886325 32.893717 -2.871232
2006-11-21 08:29:07 51°20.482 2°57.755 -999 3.884874 32.889775 -2.871232
2006-11-21 08:29:12 51°20.481 2°57.785 -999 3.883215 32.881438 -2.871232
2006-11-21 08:29:17 51°20.482 2°57.816 -999 3.881764 32.877491 -2.871232
2006-11-21 08:29:22 51°20.482 2°57.845 -999 3.880417 32.873709 -2.871232
2006-11-21 08:29:27 51°20.483 2°57.873 -999 3.880417 32.873709 -2.871232
2006-11-21 08:29:32 51°20.483 2°57.9 -999 3.877826 32.867121 -2.871232
2006-11-21 08:29:37 51°20.484 2°57.928 -999 3.875857 32.863152 -2.871232
2006-11-21 08:29:41 51°20.484 2°57.951 -999 3.873888 32.857554 -2.871232
2006-11-21 08:29:46 51°20.483 2°57.98 -999 3.872022 32.851307 -2.871232
2006-11-21 08:29:52 51°20.485 2°58.016 -999 3.870364 32.847017 -2.871232
2006-11-21 08:29:57 51°20.486 2°58.044 -999 3.870364 32.847017 -2.871232
2006-11-21 08:30:01 51°20.489 2°58.065 -999 3.868291 32.838803 -2.871232
2006-11-21 08:30:07 51°20.49 2°58.097 -999 3.86684 32.832401 -2.871232
2006-11-21 08:30:12 51°20.496 2°58.125 -999 3.865389 32.829252 -2.871232
2006-11-21 08:30:17 51°20.501 2°58.15 -999 3.862487 32.818879 -2.871232
2006-11-21 08:30:21 51°20.502 2°58.171 -999 3.855128 32.767109 -2.871232
2006-11-21 08:30:26 51°20.508 2°58.2 -999 3.855128 32.767109 -2.871232
2006-11-21 08:30:31 51°20.515 2°58.226 -999 3.842484 32.680667 -2.871232
2006-11-21 08:30:37 51°20.521 2°58.257 -999 3.825695 32.567784 -2.871232
2006-11-21 08:30:42 51°20.525 2°58.283 -999 3.808285 32.447181 -2.871232
2006-11-21 08:30:47 51°20.53 2°58.31 -999 3.790564 32.316162 -2.871232
2006-11-21 08:30:52 51°20.536 2°58.336 -999 3.77502 32.21368 -2.871232
2006-11-21 08:30:57 51°20.542 2°58.362 -999 3.77502 32.21368 -2.871232
2006-11-21 08:31:02 51°20.549 2°58.386 -999 3.765176 32.145892 -2.871232
2006-11-21 08:31:07 51°20.555 2°58.412 -999 3.756058 32.080917 -2.871232
2006-11-21 08:31:11 51°20.563 2°58.431 -999 3.745799 32.011463 -2.871232
2006-11-21 08:31:17 51°20.572 2°58.461 -999 3.738339 31.959738 -2.871232
2006-11-21 08:31:21 51°20.579 2°58.48 -999 3.730775 31.908587 -2.871232
2006-11-21 08:31:27 51°20.588 2°58.511 -999 3.730775 31.908587 -2.871232
2006-11-21 08:31:32 51°20.598 2°58.533 -999 3.72777 31.888792 -2.871232
2006-11-21 08:31:37 51°20.605 2°58.557 -999 3.725491 31.872695 -2.871232
2006-11-21 08:31:41 51°20.611 2°58.577 -999 3.724973 31.868563 -2.871232
2006-11-21 08:31:47 51°20.623 2°58.605 -999 3.722279 31.849316 -2.871232
2006-11-21 08:31:52 51°20.633 2°58.626 -999 3.719482 31.829877 -2.871232
2006-11-21 08:31:57 51°20.644 2°58.647 -999 3.719482 31.829877 -2.871232
2006-11-21 08:32:02 51°20.656 2°58.667 -999 3.719482 31.82828 -2.871232
2006-11-21 08:32:07 51°20.67 2°58.685 -999 3.716373 31.807473 -2.871232
2006-11-21 08:32:11 51°20.682 2°58.696 -999 3.714405 31.795116 -2.871232
2006-11-21 08:32:17 51°20.698 2°58.716 -999 3.714301 31.795726 -2.871232
2006-11-21 08:32:21 51°20.71 2°58.728 -999 3.709846 31.754105 -2.871232
2006-11-21 08:32:26 51°20.725 2°58.745 -999 3.709846 31.754105 -2.871232
2006-11-21 08:32:32 51°20.745 2°58.757 -999 3.697516 31.642317 -2.871232
2006-11-21 08:32:37 51°20.759 2°58.774 -999 3.713887 31.798167 -2.871232
2006-11-21 08:32:41 51°20.772 2°58.782 -999 3.71513 31.807612 -2.871232
2006-11-21 08:32:47 51°20.79 2°58.8 -999 3.716788 31.819405 -2.871232
2006-11-21 08:32:52 51°20.806 2°58.812 -999 3.718964 31.83613 -2.871232
2006-11-21 08:32:57 51°20.821 2°58.826 -999 3.718964 31.83613 -2.871232
2006-11-21 08:33:01 51°20.833 2°58.837 -999 3.721243 31.85304 -2.871232
2006-11-21 08:33:07 51°20.851 2°58.854 -999 3.722694 31.862854 -2.871232
2006-11-21 08:33:12 51°20.867 2°58.868 -999 3.724662 31.877599 -2.871232
2006-11-21 08:33:17 51°20.882 2°58.881 -999 3.725802 31.88685 -2.871232
2006-11-21 08:33:21 51°20.894 2°58.893 -999 3.726838 31.896716 -2.871232
2006-11-21 08:33:27 51°20.912 2°58.91 -999 3.726838 31.896716 -2.871232
2006-11-21 08:33:32 51°20.927 2°58.923 -999 3.727045 31.898689 -2.871232
2006-11-21 08:33:36 51°20.94 2°58.932 -999 3.726942 31.900104 -2.871232
2006-11-21 08:33:41 51°20.956 2°58.943 -999 3.72632 31.897386 -2.871232
2006-11-21 08:33:47 51°20.976 2°58.952 -999 3.72632 31.898186 -2.871232
2006-11-21 08:33:52 51°20.994 2°58.957 -999 3.726527 31.901761 -2.871232
2006-11-21 08:33:56 51°21.007 2°58.961 -999 3.726527 31.901761 -2.871232
2006-11-21 08:34:01 51°21.025 2°58.962 -999 3.726217 31.901203 -2.871232
2006-11-21 08:34:07 51°21.046 2°58.964 -999 3.726113 31.903419 -2.871232
2006-11-21 08:34:11 51°21.061 2°58.965 -999 3.725699 31.903476 -2.871232
2006-11-21 08:34:17 51°21.082 2°58.962 -999 3.725906 31.907853 -2.871232
2006-11-21 08:34:21 51°21.097 2°58.962 -999 3.727564 31.921244 -2.871232
2006-11-21 08:34:26 51°21.115 2°58.959 -999 3.727564 31.921244 -2.871232
2006-11-21 08:34:31 51°21.133 2°58.958 -999 3.729843 31.938952 -2.871232
2006-11-21 08:34:37 51°21.154 2°58.954 -999 3.731812 31.954499 -2.871232
2006-11-21 08:34:41 51°21.169 2°58.953 -999 3.733055 31.963135 -2.871232
2006-11-21 08:34:46 51°21.187 2°58.947 -999 3.733366 31.96369 -2.871232
2006-11-21 08:34:52 51°21.208 2°58.943 -999 3.732952 31.960544 -2.871232
2006-11-21 08:34:57 51°21.226 2°58.938 -999 3.732952 31.960544 -2.871232
2006-11-21 08:35:01 51°21.24 2°58.935 -999 3.732848 31.958755 -2.871232
2006-11-21 08:35:07 51°21.262 2°58.928 -999 3.732744 31.957768 -2.871232
2006-11-21 08:35:11 51°21.276 2°58.924 -999 3.732744 31.959372 -2.871232
2006-11-21 08:35:17 51°21.298 2°58.918 -999 3.733055 31.961531 -2.871232
2006-11-21 08:35:22 51°21.316 2°58.912 -999 3.733159 31.962518 -2.871232
2006-11-21 08:35:27 51°21.333 2°58.905 -999 3.733159 31.962518 -2.871232
2006-11-21 08:35:32 51°21.351 2°58.898 -999 3.733263 31.964307 -2.871232
2006-11-21 08:35:37 51°21.369 2°58.889 -999 3.733263 31.964307 -2.871232
2006-11-21 08:35:42 51°21.386 2°58.881 -999 3.732848 31.961963 -2.871232
2006-11-21 08:35:47 51°21.404 2°58.872 -999 3.732123 31.955856 -2.871232
2006-11-21 08:35:51 51°21.418 2°58.865 -999 3.730879 31.947219 -2.871232
2006-11-21 08:35:57 51°21.439 2°58.854 -999 3.730879 31.947219 -2.871232
2006-11-21 08:36:01 51°21.453 2°58.846 -999 3.729947 31.939137 -2.871232
2006-11-21 08:36:05 51°21.466 2°58.838 -999 3.729014 31.931055 -2.871232
2006-11-21 08:36:12 51°21.489 2°58.826 -999 3.727667 31.920628 -2.871232
2006-11-21 08:36:17 51°21.505 2°58.818 -999 3.719689 31.850233 -2.871232
2006-11-21 08:36:22 51°21.519 2°58.809 -999 3.723834 31.892916 -2.871232
2006-11-21 08:36:27 51°21.534 2°58.801 -999 3.723834 31.892916 -2.871232
2006-11-21 08:36:32 51°21.548 2°58.791 -999 3.722694 31.882858 -2.871232
2006-11-21 08:36:37 51°21.562 2°58.784 -999 3.720933 31.870079 -2.871232
2006-11-21 08:36:42 51°21.576 2°58.777 -999 3.719689 31.860633 -2.871232
2006-11-21 08:36:47 51°21.589 2°58.769 -999 3.71886 31.853535 -2.871232
2006-11-21 08:36:51 51°21.6 2°58.764 -999 3.717721 31.845876 -2.871232
2006-11-21 08:36:57 51°21.616 2°58.756 -999 3.717721 31.845876 -2.871232
2006-11-21 08:37:02 51°21.626 2°58.749 -999 3.716892 31.842777 -2.871232
2006-11-21 08:37:07 51°21.639 2°58.742 -999 3.716477 31.841228 -2.871232
2006-11-21 08:37:12 51°21.651 2°58.732 -999 3.716374 31.842641 -2.871232
2006-11-21 08:37:17 51°21.662 2°58.722 -999 3.717099 31.849554 -2.871232
2006-11-21 08:37:23 51°21.676 2°58.711 -999 3.718446 31.862392 -2.871232
2006-11-21 08:37:27 51°21.685 2°58.703 -999 3.718446 31.862392 -2.871232
2006-11-21 08:37:32 51°21.696 2°58.694 -999 3.725284 31.917959 -2.871232
2006-11-21 08:37:37 51°21.707 2°58.684 -999 3.737304 32.010839 -2.871232
2006-11-21 08:37:42 51°21.718 2°58.676 -999 3.750981 32.108979 -2.871232
2006-11-21 08:37:47 51°21.728 2°58.665 -999 3.767457 32.229603 -2.871232
2006-11-21 08:37:51 51°21.737 2°58.658 -999 3.783933 32.350877 -2.871232
2006-11-21 08:37:56 51°21.746 2°58.649 -999 3.783933 32.350877 -2.871232
2006-11-21 08:38:02 51°21.759 2°58.64 -999 3.796886 32.436046 -2.871232
2006-11-21 08:38:06 51°21.767 2°58.634 -999 3.806006 32.494375 -2.871232
2006-11-21 08:38:13 51°21.784 2°58.628 -999 3.814503 32.549165 -2.871232
2006-11-21 08:38:17 51°21.793 2°58.626 -999 3.821861 32.597133 -2.871232
2006-11-21 08:38:22 51°21.806 2°58.622 -999 3.828908 32.636415 -2.871232
2006-11-21 08:38:28 51°21.82 2°58.617 -999 3.828908 32.636415 -2.871232
2006-11-21 08:38:31 51°21.828 2°58.614 -999 3.833365 32.658384 -2.871232
2006-11-21 08:38:36 51°21.84 2°58.608 -999 3.839997 32.698539 -2.871232
2006-11-21 08:38:42 51°21.855 2°58.601 -999 3.84435 32.723547 -2.871232
2006-11-21 08:38:47 51°21.868 2°58.596 -999 3.848392 32.744777 -2.871232
2006-11-21 08:38:52 51°21.88 2°58.59 -999 3.852952 32.770088 -2.871232
2006-11-21 08:38:56 51°21.891 2°58.589 -999 3.852952 32.770088 -2.871232
2006-11-21 08:39:02 51°21.907 2°58.586 -999 3.85772 32.794901 -2.871232
2006-11-21 08:39:06 51°21.917 2°58.586 -999 3.861451 32.813137 -2.871232
2006-11-21 08:39:12 51°21.933 2°58.584 -999 3.864664 32.8232 -2.871232
2006-11-21 08:39:17 51°21.945 2°58.583 -999 3.872022 32.846427 -2.871232
2006-11-21 08:39:22 51°21.958 2°58.577 -999 3.879899 32.868005 -2.871232
2006-11-21 08:39:27 51°21.969 2°58.568 -999 3.879899 32.868005 -2.871232
2006-11-21 08:39:32 51°21.979 2°58.558 -999 3.885184 32.880528 -2.871232
2006-11-21 08:39:37 51°21.987 2°58.543 -999 3.889745 32.895122 -2.871232
2006-11-21 08:39:42 51°21.994 2°58.529 -999 3.89358 32.907731 -2.871232
2006-11-21 08:39:46 51°21.999 2°58.516 -999 3.896896 32.919504 -2.871232
2006-11-21 08:39:52 51°22.004 2°58.495 -999 3.899799 32.929798 -2.871232
2006-11-21 08:39:57 51°22.006 2°58.476 -999 3.899799 32.929798 -2.871232
2006-11-21 08:40:01 51°22.007 2°58.461 -999 3.901457 32.929194 -2.871232
2006-11-21 08:40:06 51°22.006 2°58.443 -999 3.904359 32.939478 -2.871232
2006-11-21 08:40:12 51°22.002 2°58.421 -999 3.905188 32.93108 -2.871232
2006-11-21 08:40:17 51°21.997 2°58.402 -999 3.910371 32.959545 -2.871232
2006-11-21 08:40:22 51°21.991 2°58.387 -999 3.909852 32.938495 -2.871232
2006-11-21 08:40:26 51°21.985 2°58.376 -999 3.909852 32.938495 -2.871232
2006-11-21 08:40:32 51°21.975 2°58.364 -999 3.914724 32.968868 -2.871232
2006-11-21 08:40:37 51°21.965 2°58.355 -999 3.9169 32.973931 -2.871232
2006-11-21 08:40:42 51°21.954 2°58.348 -999 3.919077 32.983033 -2.871232
2006-11-21 08:40:46 51°21.945 2°58.344 -999 3.921358 32.993104 -2.871232
2006-11-21 08:40:52 51°21.931 2°58.339 -999 3.921254 32.982432 -2.871232
2006-11-21 08:40:57 51°21.921 2°58.336 -999 3.921254 32.982432 -2.871232
2006-11-21 08:41:02 51°21.91 2°58.333 -999 3.91804 32.943426 -2.871232
2006-11-21 08:41:07 51°21.901 2°58.33 -999 3.923223 32.985544 -2.871232
2006-11-21 08:41:12 51°21.891 2°58.326 -999 3.924882 32.99301 -2.871232
2006-11-21 08:41:17 51°21.882 2°58.322 -999 3.924052 32.982009 -2.871232
2006-11-21 08:41:22 51°21.874 2°58.316 -999 3.92229 32.964692 -2.871232
2006-11-21 08:41:27 51°21.866 2°58.31 -999 3.92229 32.964692 -2.871232
2006-11-21 08:41:32 51°21.859 2°58.305 -999 3.921253 32.955787 -2.871232
2006-11-21 08:41:37 51°21.852 2°58.299 -999 3.922394 32.968891 -2.871232
2006-11-21 08:41:42 51°21.845 2°58.293 -999 3.914205 32.896203 -2.871232
2006-11-21 08:41:46 51°21.84 2°58.288 -999 3.918144 32.937137 -2.871232
2006-11-21 08:41:52 51°21.833 2°58.28 -999 3.912857 32.893244 -2.871232
2006-11-21 08:41:57 51°21.827 2°58.273 -999 3.912857 32.893244 -2.871232
2006-11-21 08:42:01 51°21.823 2°58.268 -999 3.915138 32.920257 -2.871232
2006-11-21 08:42:06 51°21.818 2°58.262 -999 3.909437 32.872466 -2.871232
2006-11-21 08:42:12 51°21.812 2°58.257 -999 3.909333 32.876328 -2.871232
2006-11-21 08:42:17 51°21.807 2°58.251 -999 3.915553 32.939474 -2.871232
2006-11-21 08:42:22 51°21.803 2°58.246 -999 3.908711 32.879361 -2.871232
2006-11-21 08:42:27 51°21.799 2°58.242 -999 3.908711 32.879361 -2.871232
2006-11-21 08:42:33 51°21.794 2°58.237 -999 3.906845 32.864285 -2.871232
2006-11-21 08:42:37 51°21.792 2°58.233 -999 3.912028 32.916109 -2.871232
2006-11-21 08:42:42 51°21.788 2°58.23 -999 3.906016 32.860538 -2.871232
2006-11-21 08:42:47 51°21.785 2°58.227 -999 3.911614 32.914641 -2.871232
2006-11-21 08:42:52 51°21.782 2°58.224 -999 3.914827 32.944781 -2.871232
2006-11-21 08:42:57 51°21.78 2°58.222 -999 3.914827 32.944781 -2.871232
2006-11-21 08:43:02 51°21.778 2°58.221 -999 3.916278 32.958395 -2.871232
2006-11-21 08:43:07 51°21.776 2°58.221 -999 3.916071 32.95645 -2.871232
2006-11-21 08:43:12 51°21.775 2°58.22 -999 3.917626 32.970228 -2.871232
2006-11-21 08:43:17 51°21.774 2°58.221 -999 3.915345 32.948835 -2.871232
2006-11-21 08:43:22 51°21.774 2°58.222 -999 3.916797 32.96164 -2.871232
2006-11-21 08:43:27 51°21.773 2°58.223 -999 3.916797 32.96164 -2.871232
2006-11-21 08:43:33 51°21.772 2°58.223 -999 3.914931 32.943331 -2.871232
2006-11-21 08:43:37 51°21.772 2°58.224 -999 3.915242 32.946248 -2.871232
2006-11-21 08:43:41 51°21.771 2°58.225 -999 3.911717 32.916421 -2.871232
2006-11-21 08:43:47 51°21.771 2°58.225 -999 3.918663 32.983996 -2.871232
2006-11-21 08:43:53 51°21.77 2°58.227 -999 3.915864 32.96097 -2.871232
2006-11-21 08:43:57 51°21.77 2°58.227 -999 3.915864 32.96097 -2.871232
2006-11-21 08:44:02 51°21.769 2°58.227 -999 3.916589 32.969395 -2.871232
2006-11-21 08:44:08 51°21.768 2°58.227 -999 3.914931 32.956258 -2.871232
2006-11-21 08:44:12 51°21.768 2°58.228 -999 3.910681 32.918805 -2.871232
2006-11-21 08:44:17 51°21.767 2°58.228 -999 3.91348 32.945874 -2.871232
2006-11-21 08:44:22 51°21.766 2°58.228 -999 3.916797 32.977811 -2.871232
2006-11-21 08:44:27 51°21.766 2°58.228 -999 3.916797 32.977811 -2.871232
2006-11-21 08:44:32 51°21.765 2°58.228 -999 3.919077 32.999215 -2.871232
2006-11-21 08:44:37 51°21.764 2°58.229 -999 3.918248 32.992241 -2.871232
2006-11-21 08:44:41 51°21.764 2°58.229 -999 3.918456 32.995805 -2.871232
2006-11-21 08:44:47 51°21.763 2°58.229 -999 3.919803 33.008455 -2.871232
2006-11-21 08:44:51 51°21.762 2°58.229 -999 3.917834 32.989967 -2.871232
2006-11-21 08:44:56 51°21.762 2°58.229 -999 3.917834 32.989967 -2.871232